Wetterdaten: Donnerstag, 15.03.2018
Datum Zeit Temp. Aussen Temp. o. S. +5cm Feuchte Auss BlattFeu 1 Luftdruck Regen Sonnenschein Regendauer Solar Windben Empfang
15.03.2018 00:00 5,9 C 5,6 C 3,9 C 82 % 0 lf 1003,0 hPa 0,0 l/m 0 min 0 min 0 W/m 22,5 km/h (4 Bft) 93,62 %
15.03.2018 00:02 5,9 C 5,6 C 3,9 C 82 % 0 lf 1002,9 hPa 0,0 l/m 0 min 0 min 0 W/m 24,8 km/h (4 Bft) 97,56 %
15.03.2018 00:04 5,9 C 5,6 C 3,9 C 82 % 0 lf 1002,9 hPa 0,0 l/m 0 min 0 min 0 W/m 24,8 km/h (4 Bft) 95,74 %
15.03.2018 00:08 5,9 C 5,6 C 3,9 C 82 % 0 lf 1002,9 hPa 0,0 l/m 0 min 0 min 0 W/m 22,5 km/h (4 Bft) 95,60 %
15.03.2018 00:10 5,8 C 5,6 C 3,3 C 82 % 0 lf 1002,8 hPa 0,0 l/m 0 min 0 min 0 W/m 22,5 km/h (4 Bft) 95,74 %
15.03.2018 00:12 5,8 C 5,0 C 3,3 C 82 % 0 lf 1002,7 hPa 0,0 l/m 0 min 0 min 0 W/m 22,5 km/h (4 Bft) 95,74 %
15.03.2018 00:14 5,8 C 5,0 C 3,3 C 82 % 0 lf 1002,7 hPa 0,0 l/m 0 min 0 min 0 W/m 24,8 km/h (4 Bft) 95,74 %
15.03.2018 00:16 5,8 C 5,0 C 3,3 C 82 % 0 lf 1002,7 hPa 0,0 l/m 0 min 0 min 0 W/m 20,3 km/h (4 Bft) 95,74 %
15.03.2018 00:18 5,7 C 5,0 C 3,3 C 82 % 0 lf 1002,6 hPa 0,0 l/m 0 min 0 min 0 W/m 18,0 km/h (3 Bft) 97,83 %
15.03.2018 00:20 5,7 C 5,0 C 3,3 C 82 % 0 lf 1002,6 hPa 0,0 l/m 0 min 0 min 0 W/m 18,0 km/h (3 Bft) 97,87 %
15.03.2018 00:22 5,7 C 5,0 C 3,3 C 82 % 0 lf 1002,6 hPa 0,0 l/m 0 min 0 min 0 W/m 20,3 km/h (4 Bft) 97,87 %
15.03.2018 00:24 5,7 C 5,0 C 3,3 C 82 % 0 lf 1002,6 hPa 0,0 l/m 0 min 0 min 0 W/m 29,3 km/h (5 Bft) 97,87 %
15.03.2018 00:26 5,7 C 5,0 C 3,3 C 82 % 0 lf 1002,5 hPa 0,0 l/m 0 min 0 min 0 W/m 24,8 km/h (4 Bft) 97,87 %
15.03.2018 00:28 5,6 C 5,0 C 3,3 C 82 % 0 lf 1002,6 hPa 0,0 l/m 0 min 0 min 0 W/m 22,5 km/h (4 Bft) 93,62 %
15.03.2018 00:30 5,6 C 5,0 C 3,3 C 82 % 0 lf 1002,4 hPa 0,0 l/m 0 min 0 min 0 W/m 22,5 km/h (4 Bft) 97,87 %
15.03.2018 00:32 5,6 C 5,0 C 3,3 C 82 % 0 lf 1002,4 hPa 0,0 l/m 0 min 0 min 0 W/m 18,0 km/h (3 Bft) 97,83 %
15.03.2018 00:34 5,6 C 5,0 C 3,3 C 82 % 0 lf 1002,4 hPa 0,0 l/m 0 min 0 min 0 W/m 24,8 km/h (4 Bft) 97,87 %
15.03.2018 00:36 5,6 C 5,0 C 3,3 C 82 % 0 lf 1002,4 hPa 0,0 l/m 0 min 0 min 0 W/m 22,5 km/h (4 Bft) 97,87 %
15.03.2018 00:38 5,5 C 5,0 C 3,3 C 82 % 0 lf 1002,3 hPa 0,0 l/m 0 min 0 min 0 W/m 22,5 km/h (4 Bft) 97,87 %
15.03.2018 00:40 5,5 C 5,0 C 3,3 C 82 % 0 lf 1002,3 hPa 0,0 l/m 0 min 0 min 0 W/m 18,0 km/h (3 Bft) 95,74 %
15.03.2018 00:42 5,5 C 5,0 C 3,3 C 82 % 0 lf 1002,3 hPa 0,0 l/m 0 min 0 min 0 W/m 13,5 km/h (3 Bft) 97,83 %
15.03.2018 00:44 5,4 C 5,0 C 3,3 C 82 % 0 lf 1002,3 hPa 0,0 l/m 0 min 0 min 0 W/m 20,3 km/h (4 Bft) 97,87 %
15.03.2018 00:46 5,4 C 5,0 C 3,3 C 82 % 0 lf 1002,2 hPa 0,0 l/m 0 min 0 min 0 W/m 18,0 km/h (3 Bft) 95,74 %
15.03.2018 00:48 5,4 C 5,0 C 3,3 C 82 % 0 lf 1002,2 hPa 0,0 l/m 0 min 0 min 0 W/m 20,3 km/h (4 Bft) 97,87 %
15.03.2018 00:50 5,4 C 5,0 C 3,3 C 82 % 0 lf 1002,2 hPa 0,0 l/m 0 min 0 min 0 W/m 22,5 km/h (4 Bft) 97,87 %
15.03.2018 00:52 5,4 C 5,0 C 3,3 C 82 % 0 lf 1002,1 hPa 0,0 l/m 0 min 0 min 0 W/m 22,5 km/h (4 Bft) 97,87 %
15.03.2018 00:54 5,4 C 5,0 C 2,8 C 82 % 0 lf 1002,0 hPa 0,0 l/m 0 min 0 min 0 W/m 18,0 km/h (3 Bft) 97,83 %
15.03.2018 00:56 5,3 C 5,0 C 2,8 C 82 % 0 lf 1002,1 hPa 0,0 l/m 0 min 0 min 0 W/m 22,5 km/h (4 Bft) 97,87 %
15.03.2018 00:58 5,3 C 4,4 C 2,8 C 82 % 0 lf 1002,0 hPa 0,0 l/m 0 min 0 min 0 W/m 22,5 km/h (4 Bft) 95,74 %
15.03.2018 01:00 5,3 C 4,4 C 2,8 C 82 % 0 lf 1002,0 hPa 0,0 l/m 0 min 0 min 0 W/m 18,0 km/h (3 Bft) 97,87 %
15.03.2018 01:02 5,2 C 4,4 C 2,8 C 82 % 0 lf 1001,9 hPa 0,0 l/m 0 min 0 min 0 W/m 18,0 km/h (3 Bft) 97,87 %
15.03.2018 01:04 5,2 C 4,4 C 2,8 C 82 % 0 lf 1001,8 hPa 0,0 l/m 0 min 0 min 0 W/m 18,0 km/h (3 Bft) 95,74 %
15.03.2018 01:06 5,2 C 4,4 C 2,8 C 82 % 0 lf 1001,8 hPa 0,0 l/m 0 min 0 min 0 W/m 18,0 km/h (3 Bft) 95,65 %
15.03.2018 01:08 5,2 C 4,4 C 2,8 C 83 % 0 lf 1001,7 hPa 0,0 l/m 0 min 0 min 0 W/m 20,3 km/h (4 Bft) 97,87 %
15.03.2018 01:10 5,1 C 4,4 C 2,8 C 83 % 0 lf 1001,7 hPa 0,0 l/m 0 min 0 min 0 W/m 20,3 km/h (4 Bft) 95,74 %
15.03.2018 01:12 5,1 C 4,4 C 2,8 C 83 % 0 lf 1001,7 hPa 0,0 l/m 0 min 0 min 0 W/m 20,3 km/h (4 Bft) 97,87 %
15.03.2018 01:14 5,1 C 4,4 C 2,2 C 83 % 0 lf 1001,6 hPa 0,0 l/m 0 min 0 min 0 W/m 18,0 km/h (3 Bft) 97,87 %
15.03.2018 01:16 5,1 C 4,4 C 2,8 C 83 % 0 lf 1001,6 hPa 0,0 l/m 0 min 0 min 0 W/m 13,5 km/h (3 Bft) 97,83 %
15.03.2018 01:18 5,0 C 4,4 C 2,8 C 83 % 0 lf 1001,6 hPa 0,0 l/m 0 min 0 min 0 W/m 18,0 km/h (3 Bft) 97,87 %
15.03.2018 01:20 5,0 C 4,4 C 2,2 C 83 % 0 lf 1001,7 hPa 0,0 l/m 0 min 0 min 0 W/m 24,8 km/h (4 Bft) 95,74 %
15.03.2018 01:22 4,9 C 4,4 C 2,2 C 83 % 0 lf 1001,6 hPa 0,0 l/m 0 min 0 min 0 W/m 20,3 km/h (4 Bft) 97,87 %
15.03.2018 01:24 4,9 C 4,4 C 2,2 C 83 % 0 lf 1001,6 hPa 0,0 l/m 0 min 0 min 0 W/m 15,8 km/h (3 Bft) 100,00 %
15.03.2018 01:26 4,9 C 4,4 C 2,2 C 83 % 0 lf 1001,6 hPa 0,0 l/m 0 min 0 min 0 W/m 24,8 km/h (4 Bft) 100,00 %
15.03.2018 01:28 4,9 C 4,4 C 2,2 C 83 % 0 lf 1001,5 hPa 0,0 l/m 0 min 0 min 0 W/m 22,5 km/h (4 Bft) 100,00 %
15.03.2018 01:30 4,9 C 4,4 C 2,8 C 83 % 0 lf 1001,5 hPa 0,0 l/m 0 min 0 min 0 W/m 22,5 km/h (4 Bft) 100,00 %
15.03.2018 01:32 4,9 C 4,4 C 2,8 C 84 % 0 lf 1001,5 hPa 0,0 l/m 0 min 0 min 0 W/m 22,5 km/h (4 Bft) 100,00 %
15.03.2018 01:34 4,9 C 4,4 C 2,8 C 84 % 0 lf 1001,5 hPa 0,0 l/m 0 min 0 min 0 W/m 18,0 km/h (3 Bft) 100,00 %
15.03.2018 01:36 4,8 C 4,4 C 2,8 C 84 % 0 lf 1001,6 hPa 0,0 l/m 0 min 0 min 0 W/m 18,0 km/h (3 Bft) 95,74 %
15.03.2018 01:38 4,8 C 4,4 C 2,2 C 84 % 0 lf 1001,5 hPa 0,0 l/m 0 min 0 min 0 W/m 18,0 km/h (3 Bft) 100,00 %
15.03.2018 01:40 4,8 C 4,4 C 2,8 C 84 % 0 lf 1001,5 hPa 0,0 l/m 0 min 0 min 0 W/m 27,0 km/h (4 Bft) 100,00 %
15.03.2018 01:42 4,8 C 4,4 C 2,8 C 84 % 0 lf 1001,5 hPa 0,0 l/m 0 min 0 min 0 W/m 24,8 km/h (4 Bft) 97,87 %
15.03.2018 01:44 4,8 C 5,0 C 2,8 C 84 % 0 lf 1001,5 hPa 0,0 l/m 0 min 0 min 0 W/m 29,3 km/h (5 Bft) 100,00 %
15.03.2018 01:46 4,8 C 5,0 C 2,8 C 84 % 0 lf 1001,4 hPa 0,0 l/m 0 min 0 min 0 W/m 29,3 km/h (5 Bft) 100,00 %
15.03.2018 01:48 4,8 C 5,0 C 2,8 C 84 % 0 lf 1001,4 hPa 0,0 l/m 0 min 0 min 0 W/m 22,5 km/h (4 Bft) 100,00 %
15.03.2018 01:50 4,9 C 5,0 C 3,3 C 84 % 0 lf 1001,4 hPa 0,0 l/m 0 min 0 min 0 W/m 33,8 km/h (5 Bft) 97,87 %
15.03.2018 01:52 4,9 C 5,0 C 3,3 C 84 % 0 lf 1001,4 hPa 0,0 l/m 0 min 0 min 0 W/m 24,8 km/h (4 Bft) 97,83 %
15.03.2018 01:54 4,9 C 5,0 C 3,3 C 84 % 0 lf 1001,4 hPa 0,0 l/m 0 min 0 min 0 W/m 38,3 km/h (5 Bft) 95,74 %
15.03.2018 01:56 4,9 C 5,0 C 3,3 C 84 % 0 lf 1001,4 hPa 0,0 l/m 0 min 0 min 0 W/m 31,5 km/h (5 Bft) 100,00 %
15.03.2018 01:58 4,9 C 5,0 C 3,3 C 84 % 0 lf 1001,4 hPa 0,0 l/m 0 min 0 min 0 W/m 24,8 km/h (4 Bft) 100,00 %
15.03.2018 02:00 5,0 C 5,0 C 3,3 C 84 % 0 lf 1001,3 hPa 0,0 l/m 0 min 0 min 0 W/m 29,3 km/h (5 Bft) 97,87 %
15.03.2018 02:02 5,0 C 5,0 C 3,3 C 84 % 0 lf 1001,2 hPa 0,0 l/m 0 min 0 min 0 W/m 31,5 km/h (5 Bft) 95,74 %
15.03.2018 02:04 5,0 C 5,0 C 3,3 C 84 % 0 lf 1001,2 hPa 0,0 l/m 0 min 0 min 0 W/m 38,3 km/h (5 Bft) 93,48 %
15.03.2018 02:06 5,1 C 5,0 C 3,3 C 84 % 0 lf 1001,1 hPa 0,0 l/m 0 min 0 min 0 W/m 22,5 km/h (4 Bft) 93,62 %
15.03.2018 02:08 5,1 C 5,0 C 3,3 C 83 % 0 lf 1001,1 hPa 0,0 l/m 0 min 0 min 0 W/m 36,0 km/h (5 Bft) 95,74 %
15.03.2018 02:10 5,1 C 5,0 C 3,3 C 83 % 0 lf 1001,1 hPa 0,0 l/m 0 min 0 min 0 W/m 38,3 km/h (5 Bft) 95,74 %
15.03.2018 02:12 5,1 C 5,0 C 3,3 C 84 % 0 lf 1001,1 hPa 0,0 l/m 0 min 0 min 0 W/m 33,8 km/h (5 Bft) 93,62 %
15.03.2018 02:14 5,1 C 5,0 C 3,3 C 83 % 0 lf 1001,0 hPa 0,0 l/m 0 min 0 min 0 W/m 27,0 km/h (4 Bft) 95,74 %
15.03.2018 02:16 5,1 C 5,0 C 3,3 C 83 % 0 lf 1001,0 hPa 0,0 l/m 0 min 0 min 0 W/m 22,5 km/h (4 Bft) 95,65 %
15.03.2018 02:18 5,1 C 5,0 C 3,3 C 83 % 0 lf 1001,0 hPa 0,0 l/m 0 min 0 min 0 W/m 33,8 km/h (5 Bft) 93,62 %
15.03.2018 02:20 5,1 C 5,0 C 3,3 C 83 % 0 lf 1001,0 hPa 0,0 l/m 0 min 0 min 0 W/m 36,0 km/h (5 Bft) 95,74 %
15.03.2018 02:22 5,1 C 5,0 C 3,3 C 83 % 0 lf 1000,9 hPa 0,0 l/m 0 min 0 min 0 W/m 33,8 km/h (5 Bft) 96,00 %
15.03.2018 02:24 5,1 C 5,0 C 3,3 C 83 % 0 lf 1001,0 hPa 0,0 l/m 0 min 0 min 0 W/m 33,8 km/h (5 Bft) 95,74 %
15.03.2018 02:26 5,1 C 5,0 C 3,3 C 83 % 0 lf 1000,9 hPa 0,0 l/m 0 min 0 min 0 W/m 40,6 km/h (6 Bft) 93,48 %
15.03.2018 02:28 5,1 C 5,0 C 3,3 C 83 % 0 lf 1000,9 hPa 0,0 l/m 0 min 0 min 0 W/m 38,3 km/h (5 Bft) 95,74 %
15.03.2018 02:30 5,1 C 5,0 C 3,3 C 83 % 0 lf 1000,8 hPa 0,0 l/m 0 min 0 min 0 W/m 38,3 km/h (5 Bft) 95,74 %
15.03.2018 02:32 5,1 C 5,0 C 3,3 C 83 % 0 lf 1000,8 hPa 0,0 l/m 0 min 0 min 0 W/m 24,8 km/h (4 Bft) 93,62 %
15.03.2018 02:34 5,1 C 5,0 C 2,8 C 83 % 0 lf 1000,7 hPa 0,0 l/m 0 min 0 min 0 W/m 31,5 km/h (5 Bft) 91,49 %
15.03.2018 02:36 5,1 C 5,0 C 2,8 C 83 % 0 lf 1000,8 hPa 0,0 l/m 0 min 0 min 0 W/m 27,0 km/h (4 Bft) 91,49 %
15.03.2018 02:38 5,1 C 5,0 C 2,8 C 83 % 0 lf 1000,7 hPa 0,0 l/m 0 min 0 min 0 W/m 31,5 km/h (5 Bft) 93,48 %
15.03.2018 02:40 5,1 C 4,4 C 2,8 C 83 % 0 lf 1000,7 hPa 0,0 l/m 0 min 0 min 0 W/m 31,5 km/h (5 Bft) 95,74 %
15.03.2018 02:42 5,1 C 5,0 C 3,3 C 83 % 0 lf 1000,7 hPa 0,0 l/m 0 min 0 min 0 W/m 38,3 km/h (5 Bft) 95,74 %
15.03.2018 02:44 5,1 C 5,0 C 3,3 C 83 % 0 lf 1000,7 hPa 0,0 l/m 0 min 0 min 0 W/m 31,5 km/h (5 Bft) 97,87 %
15.03.2018 02:46 5,1 C 5,0 C 3,3 C 83 % 0 lf 1000,6 hPa 0,0 l/m 0 min 0 min 0 W/m 33,8 km/h (5 Bft) 95,74 %
15.03.2018 02:48 5,1 C 5,0 C 3,3 C 83 % 0 lf 1000,5 hPa 0,0 l/m 0 min 0 min 0 W/m 31,5 km/h (5 Bft) 95,74 %
15.03.2018 02:50 5,1 C 5,0 C 3,3 C 83 % 0 lf 1000,5 hPa 0,0 l/m 0 min 0 min 0 W/m 38,3 km/h (5 Bft) 97,83 %
15.03.2018 02:52 5,1 C 5,0 C 3,3 C 83 % 0 lf 1000,5 hPa 0,0 l/m 0 min 0 min 0 W/m 40,6 km/h (6 Bft) 97,87 %
15.03.2018 02:54 5,1 C 4,4 C 3,3 C 83 % 0 lf 1000,4 hPa 0,0 l/m 0 min 0 min 0 W/m 40,6 km/h (6 Bft) 97,87 %
15.03.2018 02:56 5,0 C 4,4 C 2,8 C 83 % 0 lf 1000,5 hPa 0,0 l/m 0 min 0 min 0 W/m 33,8 km/h (5 Bft) 97,87 %
15.03.2018 02:58 5,0 C 5,0 C 3,3 C 83 % 0 lf 1000,4 hPa 0,0 l/m 0 min 0 min 0 W/m 27,0 km/h (4 Bft) 91,49 %
15.03.2018 03:00 5,0 C 5,0 C 2,8 C 83 % 0 lf 1000,4 hPa 0,0 l/m 0 min 0 min 0 W/m 36,0 km/h (5 Bft) 95,74 %
15.03.2018 03:02 5,0 C 5,0 C 3,3 C 83 % 0 lf 1000,5 hPa 0,0 l/m 0 min 0 min 0 W/m 40,6 km/h (6 Bft) 95,65 %
15.03.2018 03:04 5,0 C 5,0 C 3,3 C 83 % 0 lf 1000,3 hPa 0,0 l/m 0 min 0 min 0 W/m 49,6 km/h (6 Bft) 97,87 %
15.03.2018 03:06 5,0 C 5,0 C 3,3 C 83 % 0 lf 1000,3 hPa 0,0 l/m 0 min 0 min 0 W/m 38,3 km/h (5 Bft) 97,87 %
15.03.2018 03:08 5,0 C 5,0 C 3,3 C 83 % 0 lf 1000,4 hPa 0,0 l/m 0 min 0 min 0 W/m 49,6 km/h (6 Bft) 95,74 %
15.03.2018 03:10 5,1 C 5,0 C 3,3 C 83 % 0 lf 1000,2 hPa 0,0 l/m 0 min 0 min 0 W/m 47,3 km/h (6 Bft) 97,87 %
15.03.2018 03:12 5,1 C 5,0 C 3,3 C 83 % 0 lf 1000,1 hPa 0,0 l/m 0 min 0 min 0 W/m 29,3 km/h (5 Bft) 95,74 %
15.03.2018 03:14 5,0 C 5,0 C 3,3 C 83 % 0 lf 1000,1 hPa 0,0 l/m 0 min 0 min 0 W/m 38,3 km/h (5 Bft) 95,65 %
15.03.2018 03:16 5,0 C 5,0 C 3,3 C 83 % 0 lf 999,9 hPa 0,0 l/m 0 min 0 min 0 W/m 29,3 km/h (5 Bft) 97,87 %
15.03.2018 03:18 5,0 C 5,0 C 3,3 C 83 % 0 lf 1000,0 hPa 0,0 l/m 0 min 0 min 0 W/m 42,8 km/h (6 Bft) 97,87 %
15.03.2018 03:20 5,0 C 5,0 C 3,3 C 83 % 0 lf 1000,0 hPa 0,0 l/m 0 min 0 min 0 W/m 47,3 km/h (6 Bft) 97,87 %
15.03.2018 03:22 5,0 C 5,0 C 3,3 C 83 % 0 lf 999,9 hPa 0,0 l/m 0 min 0 min 0 W/m 38,3 km/h (5 Bft) 97,96 %
15.03.2018 03:24 5,0 C 5,0 C 3,3 C 83 % 0 lf 999,9 hPa 0,0 l/m 0 min 0 min 0 W/m 45,1 km/h (6 Bft) 100,00 %
15.03.2018 03:26 5,0 C 5,0 C 3,3 C 83 % 0 lf 999,9 hPa 0,0 l/m 0 min 0 min 0 W/m 36,0 km/h (5 Bft) 100,00 %
15.03.2018 03:28 5,0 C 5,0 C 3,3 C 83 % 0 lf 999,8 hPa 0,0 l/m 0 min 0 min 0 W/m 31,5 km/h (5 Bft) 100,00 %
15.03.2018 03:30 5,0 C 5,0 C 3,3 C 83 % 0 lf 999,8 hPa 0,0 l/m 0 min 0 min 0 W/m 38,3 km/h (5 Bft) 97,87 %
15.03.2018 03:32 5,1 C 5,0 C 3,3 C 83 % 0 lf 999,8 hPa 0,0 l/m 0 min 0 min 0 W/m 38,3 km/h (5 Bft) 100,00 %
15.03.2018 03:34 5,1 C 5,0 C 3,3 C 83 % 0 lf 999,7 hPa 0,0 l/m 0 min 0 min 0 W/m 42,8 km/h (6 Bft) 97,83 %
15.03.2018 03:36 5,0 C 5,0 C 3,3 C 83 % 0 lf 999,7 hPa 0,0 l/m 0 min 0 min 0 W/m 38,3 km/h (5 Bft) 95,74 %
15.03.2018 03:38 5,0 C 5,0 C 3,3 C 83 % 0 lf 999,6 hPa 0,0 l/m 0 min 0 min 0 W/m 27,0 km/h (4 Bft) 97,87 %
15.03.2018 03:40 5,0 C 5,0 C 2,8 C 83 % 0 lf 999,6 hPa 0,0 l/m 0 min 0 min 0 W/m 33,8 km/h (5 Bft) 95,74 %
15.03.2018 03:42 5,0 C 4,4 C 2,8 C 83 % 0 lf 999,6 hPa 0,0 l/m 0 min 0 min 0 W/m 36,0 km/h (5 Bft) 97,87 %
15.03.2018 03:44 5,0 C 4,4 C 2,8 C 83 % 0 lf 999,7 hPa 0,0 l/m 0 min 0 min 0 W/m 38,3 km/h (5 Bft) 95,74 %
15.03.2018 03:46 5,0 C 5,0 C 2,8 C 83 % 0 lf 999,7 hPa 0,0 l/m 0 min 0 min 0 W/m 42,8 km/h (6 Bft) 97,83 %
15.03.2018 03:48 5,0 C 5,0 C 3,3 C 83 % 0 lf 999,6 hPa 0,0 l/m 0 min 0 min 0 W/m 36,0 km/h (5 Bft) 97,87 %
15.03.2018 03:50 5,0 C 5,0 C 2,8 C 83 % 0 lf 999,6 hPa 0,0 l/m 0 min 0 min 0 W/m 22,5 km/h (4 Bft) 98,31 %
15.03.2018 03:52 4,9 C 5,0 C 2,8 C 83 % 0 lf 999,6 hPa 0,0 l/m 0 min 0 min 0 W/m 36,0 km/h (5 Bft) 97,14 %
15.03.2018 03:54 4,9 C 4,4 C 3,3 C 83 % 0 lf 999,5 hPa 0,0 l/m 0 min 0 min 0 W/m 38,3 km/h (5 Bft) 95,74 %
15.03.2018 03:56 4,9 C 4,4 C 2,8 C 83 % 0 lf 999,6 hPa 0,0 l/m 0 min 0 min 0 W/m 33,8 km/h (5 Bft) 97,87 %
15.03.2018 03:58 4,9 C 4,4 C 2,8 C 83 % 0 lf 999,6 hPa 0,0 l/m 0 min 0 min 0 W/m 36,0 km/h (5 Bft) 97,83 %
15.03.2018 04:00 4,9 C 4,4 C 2,8 C 83 % 0 lf 999,6 hPa 0,0 l/m 0 min 0 min 0 W/m 29,3 km/h (5 Bft) 97,87 %
15.03.2018 04:05 4,9 C 4,4 C 2,8 C 82 % 0 lf 999,4 hPa 0,0 l/m 0 min 0 min 0 W/m 29,3 km/h (5 Bft) 100,00 %
15.03.2018 04:06 4,9 C 4,4 C 2,8 C 82 % 0 lf 999,4 hPa 0,0 l/m 0 min 0 min 0 W/m 27,0 km/h (4 Bft) 100,00 %
15.03.2018 04:08 4,9 C 4,4 C 2,8 C 82 % 0 lf 999,4 hPa 0,0 l/m 0 min 0 min 0 W/m 33,8 km/h (5 Bft) 95,65 %
15.03.2018 04:10 4,9 C 4,4 C 2,8 C 82 % 0 lf 999,3 hPa 0,0 l/m 0 min 0 min 0 W/m 31,5 km/h (5 Bft) 97,87 %
15.03.2018 04:12 4,8 C 4,4 C 2,8 C 82 % 0 lf 999,4 hPa 0,0 l/m 0 min 0 min 0 W/m 29,3 km/h (5 Bft) 95,74 %
15.03.2018 04:14 4,8 C 4,4 C 2,8 C 82 % 0 lf 999,4 hPa 0,0 l/m 0 min 0 min 0 W/m 42,8 km/h (6 Bft) 97,87 %
15.03.2018 04:16 4,8 C 4,4 C 2,8 C 82 % 0 lf 999,4 hPa 0,0 l/m 0 min 0 min 0 W/m 29,3 km/h (5 Bft) 97,87 %
15.03.2018 04:18 4,8 C 4,4 C 2,8 C 82 % 0 lf 999,3 hPa 0,0 l/m 0 min 0 min 0 W/m 24,8 km/h (4 Bft) 97,87 %
15.03.2018 04:20 4,8 C 4,4 C 2,8 C 82 % 0 lf 999,2 hPa 0,0 l/m 0 min 0 min 0 W/m 40,6 km/h (6 Bft) 96,55 %
15.03.2018 04:22 4,8 C 4,4 C 2,8 C 82 % 0 lf 999,2 hPa 0,0 l/m 0 min 0 min 0 W/m 42,8 km/h (6 Bft) 100,00 %
15.03.2018 04:24 4,8 C 4,4 C 2,8 C 82 % 0 lf 999,1 hPa 0,0 l/m 0 min 0 min 0 W/m 36,0 km/h (5 Bft) 97,87 %
15.03.2018 04:26 4,8 C 4,4 C 2,8 C 82 % 0 lf 999,1 hPa 0,0 l/m 0 min 0 min 0 W/m 38,3 km/h (5 Bft) 97,87 %
15.03.2018 04:28 4,8 C 4,4 C 2,8 C 82 % 0 lf 999,0 hPa 0,0 l/m 0 min 0 min 0 W/m 36,0 km/h (5 Bft) 95,74 %
15.03.2018 04:30 4,7 C 4,4 C 2,8 C 82 % 0 lf 999,1 hPa 0,0 l/m 0 min 0 min 0 W/m 36,0 km/h (5 Bft) 95,74 %
15.03.2018 04:32 4,7 C 4,4 C 2,8 C 82 % 0 lf 999,1 hPa 0,0 l/m 0 min 0 min 0 W/m 33,8 km/h (5 Bft) 95,65 %
15.03.2018 04:34 4,7 C 4,4 C 2,8 C 82 % 0 lf 999,0 hPa 0,0 l/m 0 min 0 min 0 W/m 38,3 km/h (5 Bft) 93,62 %
15.03.2018 04:36 4,7 C 4,4 C 2,8 C 82 % 0 lf 999,0 hPa 0,0 l/m 0 min 0 min 0 W/m 36,0 km/h (5 Bft) 97,87 %
15.03.2018 04:38 4,7 C 4,4 C 2,8 C 82 % 0 lf 999,0 hPa 0,0 l/m 0 min 0 min 0 W/m 38,3 km/h (5 Bft) 95,74 %
15.03.2018 04:40 4,7 C 4,4 C 2,8 C 82 % 0 lf 998,9 hPa 0,0 l/m 0 min 0 min 0 W/m 31,5 km/h (5 Bft) 95,74 %
15.03.2018 04:42 4,7 C 4,4 C 2,8 C 82 % 0 lf 998,8 hPa 0,0 l/m 0 min 0 min 0 W/m 38,3 km/h (5 Bft) 97,87 %
15.03.2018 04:44 4,7 C 4,4 C 2,8 C 82 % 0 lf 998,8 hPa 0,0 l/m 0 min 0 min 0 W/m 42,8 km/h (6 Bft) 95,65 %
15.03.2018 04:46 4,7 C 4,4 C 2,8 C 82 % 0 lf 998,7 hPa 0,0 l/m 0 min 0 min 0 W/m 40,6 km/h (6 Bft) 91,67 %
15.03.2018 04:48 4,7 C 4,4 C 2,8 C 82 % 0 lf 998,8 hPa 0,0 l/m 0 min 0 min 0 W/m 49,6 km/h (6 Bft) 95,74 %
15.03.2018 04:50 4,7 C 4,4 C 2,8 C 82 % 0 lf 998,7 hPa 0,0 l/m 0 min 0 min 0 W/m 36,0 km/h (5 Bft) 94,92 %
15.03.2018 04:52 4,7 C 4,4 C 2,8 C 82 % 0 lf 998,7 hPa 0,0 l/m 0 min 0 min 0 W/m 33,8 km/h (5 Bft) 97,14 %
15.03.2018 04:54 4,7 C 4,4 C 2,8 C 82 % 0 lf 998,7 hPa 0,0 l/m 0 min 0 min 0 W/m 42,8 km/h (6 Bft) 91,49 %
15.03.2018 04:56 4,7 C 4,4 C 2,8 C 82 % 0 lf 998,6 hPa 0,0 l/m 0 min 0 min 0 W/m 31,5 km/h (5 Bft) 93,48 %
15.03.2018 04:58 4,7 C 4,4 C 2,8 C 82 % 0 lf 998,6 hPa 0,0 l/m 0 min 0 min 0 W/m 33,8 km/h (5 Bft) 93,62 %
15.03.2018 05:00 4,6 C 4,4 C 2,8 C 82 % 0 lf 998,5 hPa 0,0 l/m 0 min 0 min 0 W/m 31,5 km/h (5 Bft) 93,62 %
15.03.2018 05:02 4,6 C 4,4 C 2,8 C 82 % 0 lf 998,5 hPa 0,0 l/m 0 min 0 min 0 W/m 36,0 km/h (5 Bft) 93,62 %
15.03.2018 05:04 4,7 C 4,4 C 2,8 C 82 % 0 lf 998,4 hPa 0,0 l/m 0 min 0 min 0 W/m 31,5 km/h (5 Bft) 93,62 %
15.03.2018 05:06 4,7 C 4,4 C 2,8 C 82 % 0 lf 998,3 hPa 0,0 l/m 0 min 0 min 0 W/m 38,3 km/h (5 Bft) 93,62 %
15.03.2018 05:08 4,6 C 4,4 C 2,8 C 82 % 0 lf 998,4 hPa 0,0 l/m 0 min 0 min 0 W/m 29,3 km/h (5 Bft) 95,65 %
15.03.2018 05:10 4,6 C 4,4 C 2,8 C 82 % 0 lf 998,4 hPa 0,0 l/m 0 min 0 min 0 W/m 33,8 km/h (5 Bft) 93,62 %
15.03.2018 05:12 4,6 C 4,4 C 2,8 C 82 % 0 lf 998,4 hPa 0,0 l/m 0 min 0 min 0 W/m 36,0 km/h (5 Bft) 93,62 %
15.03.2018 05:14 4,6 C 4,4 C 2,8 C 81 % 0 lf 998,3 hPa 0,0 l/m 0 min 0 min 0 W/m 33,8 km/h (5 Bft) 93,62 %
15.03.2018 05:16 4,6 C 4,4 C 2,8 C 81 % 0 lf 998,3 hPa 0,0 l/m 0 min 0 min 0 W/m 54,1 km/h (7 Bft) 93,62 %
15.03.2018 05:18 4,6 C 4,4 C 2,8 C 81 % 0 lf 998,4 hPa 0,0 l/m 0 min 0 min 0 W/m 33,8 km/h (5 Bft) 93,62 %
15.03.2018 05:20 4,6 C 4,4 C 2,8 C 82 % 0 lf 998,2 hPa 0,0 l/m 0 min 0 min 0 W/m 29,3 km/h (5 Bft) 91,38 %
15.03.2018 05:22 4,6 C 4,4 C 2,8 C 82 % 0 lf 998,3 hPa 0,0 l/m 0 min 0 min 0 W/m 38,3 km/h (5 Bft) 97,14 %
15.03.2018 05:24 4,6 C 4,4 C 2,8 C 82 % 0 lf 998,3 hPa 0,0 l/m 0 min 0 min 0 W/m 27,0 km/h (4 Bft) 93,62 %
15.03.2018 05:26 4,6 C 4,4 C 2,8 C 82 % 0 lf 998,2 hPa 0,0 l/m 0 min 0 min 0 W/m 47,3 km/h (6 Bft) 97,87 %
15.03.2018 05:28 4,6 C 4,4 C 2,8 C 81 % 0 lf 998,2 hPa 0,0 l/m 0 min 0 min 0 W/m 33,8 km/h (5 Bft) 100,00 %
15.03.2018 05:30 4,6 C 4,4 C 2,8 C 81 % 0 lf 998,2 hPa 0,0 l/m 0 min 0 min 0 W/m 29,3 km/h (5 Bft) 97,83 %
15.03.2018 05:32 4,6 C 4,4 C 2,8 C 81 % 0 lf 998,1 hPa 0,0 l/m 0 min 0 min 0 W/m 33,8 km/h (5 Bft) 95,74 %
15.03.2018 05:34 4,6 C 4,4 C 2,8 C 81 % 0 lf 998,1 hPa 0,0 l/m 0 min 0 min 0 W/m 31,5 km/h (5 Bft) 95,74 %
15.03.2018 05:35 4,6 C 4,4 C 2,8 C 81 % 0 lf 998,1 hPa 0,0 l/m 0 min 0 min 0 W/m 33,8 km/h (5 Bft) 100,00 %
15.03.2018 05:40 4,5 C 4,4 C 2,8 C 81 % 0 lf 998,1 hPa 0,0 l/m 0 min 0 min 0 W/m 31,5 km/h (5 Bft) 95,83 %
15.03.2018 05:42 4,5 C 4,4 C 2,8 C 81 % 0 lf 998,1 hPa 0,0 l/m 0 min 0 min 0 W/m 40,6 km/h (6 Bft) 95,74 %
15.03.2018 05:44 4,5 C 4,4 C 2,8 C 81 % 0 lf 998,1 hPa 0,0 l/m 0 min 0 min 0 W/m 29,3 km/h (5 Bft) 100,00 %
15.03.2018 05:46 4,5 C 4,4 C 2,8 C 81 % 0 lf 998,0 hPa 0,0 l/m 0 min 0 min 0 W/m 27,0 km/h (4 Bft) 100,00 %
15.03.2018 05:48 4,5 C 4,4 C 2,8 C 81 % 0 lf 997,9 hPa 0,0 l/m 0 min 0 min 0 W/m 31,5 km/h (5 Bft) 100,00 %
15.03.2018 05:50 4,5 C 4,4 C 2,8 C 81 % 0 lf 997,9 hPa 0,0 l/m 0 min 0 min 0 W/m 47,3 km/h (6 Bft) 97,87 %
15.03.2018 05:52 4,5 C 4,4 C 2,8 C 81 % 0 lf 997,8 hPa 0,0 l/m 0 min 0 min 0 W/m 38,3 km/h (5 Bft) 100,00 %
15.03.2018 05:54 4,5 C 4,4 C 2,8 C 81 % 0 lf 997,8 hPa 0,0 l/m 0 min 0 min 0 W/m 31,5 km/h (5 Bft) 100,00 %
15.03.2018 05:56 4,5 C 4,4 C 2,8 C 81 % 0 lf 997,8 hPa 0,0 l/m 0 min 0 min 0 W/m 38,3 km/h (5 Bft) 100,00 %
15.03.2018 05:58 4,5 C 4,4 C 2,8 C 81 % 0 lf 997,8 hPa 0,0 l/m 0 min 0 min 0 W/m 47,3 km/h (6 Bft) 100,00 %
15.03.2018 06:00 4,5 C 4,4 C 2,8 C 81 % 0 lf 997,8 hPa 0,0 l/m 0 min 0 min 0 W/m 38,3 km/h (5 Bft) 97,87 %
15.03.2018 06:02 4,5 C 4,4 C 2,8 C 81 % 0 lf 997,8 hPa 0,0 l/m 0 min 0 min 0 W/m 38,3 km/h (5 Bft) 100,00 %
15.03.2018 06:04 4,5 C 4,4 C 2,8 C 81 % 0 lf 997,8 hPa 0,0 l/m 0 min 0 min 0 W/m 31,5 km/h (5 Bft) 100,00 %
15.03.2018 06:07 4,5 C 4,4 C 2,8 C 81 % 0 lf 997,7 hPa 0,0 l/m 0 min 0 min 0 W/m 36,0 km/h (5 Bft) 100,00 %
15.03.2018 06:08 4,5 C 4,4 C 2,8 C 81 % 0 lf 997,7 hPa 0,0 l/m 0 min 0 min 0 W/m 42,8 km/h (6 Bft) 100,00 %
15.03.2018 06:10 4,5 C 4,4 C 2,8 C 81 % 0 lf 997,6 hPa 0,0 l/m 0 min 0 min 0 W/m 27,0 km/h (4 Bft) 100,00 %
15.03.2018 06:12 4,5 C 4,4 C 2,8 C 81 % 0 lf 997,6 hPa 0,0 l/m 0 min 0 min 0 W/m 36,0 km/h (5 Bft) 100,00 %
15.03.2018 06:14 4,4 C 4,4 C 2,8 C 81 % 0 lf 997,6 hPa 0,0 l/m 0 min 0 min 0 W/m 36,0 km/h (5 Bft) 97,87 %
15.03.2018 06:16 4,4 C 4,4 C 2,8 C 81 % 0 lf 997,6 hPa 0,0 l/m 0 min 0 min 0 W/m 29,3 km/h (5 Bft) 97,83 %
15.03.2018 06:18 4,4 C 4,4 C 2,8 C 81 % 0 lf 997,6 hPa 0,0 l/m 0 min 0 min 0 W/m 24,8 km/h (4 Bft) 100,00 %
15.03.2018 06:20 4,4 C 4,4 C 2,8 C 81 % 0 lf 997,6 hPa 0,0 l/m 0 min 0 min 0 W/m 40,6 km/h (6 Bft) 100,00 %
15.03.2018 06:22 4,4 C 4,4 C 2,8 C 80 % 0 lf 997,5 hPa 0,0 l/m 0 min 0 min 0 W/m 24,8 km/h (4 Bft) 100,00 %
15.03.2018 06:24 4,4 C 4,4 C 2,8 C 80 % 0 lf 997,5 hPa 0,0 l/m 0 min 0 min 0 W/m 33,8 km/h (5 Bft) 97,87 %
15.03.2018 06:26 4,4 C 4,4 C 2,8 C 80 % 0 lf 997,5 hPa 0,0 l/m 0 min 0 min 0 W/m 27,0 km/h (4 Bft) 100,00 %
15.03.2018 06:28 4,4 C 4,4 C 2,8 C 80 % 0 lf 997,5 hPa 0,0 l/m 0 min 0 min 0 W/m 33,8 km/h (5 Bft) 100,00 %
15.03.2018 06:30 4,4 C 4,4 C 2,8 C 80 % 0 lf 997,4 hPa 0,0 l/m 0 min 0 min 0 W/m 33,8 km/h (5 Bft) 100,00 %
15.03.2018 06:32 4,4 C 4,4 C 2,8 C 80 % 0 lf 997,4 hPa 0,0 l/m 0 min 0 min 0 W/m 36,0 km/h (5 Bft) 95,74 %
15.03.2018 06:34 4,4 C 4,4 C 2,8 C 80 % 0 lf 997,4 hPa 0,0 l/m 0 min 0 min 5 W/m 33,8 km/h (5 Bft) 100,00 %
15.03.2018 06:36 4,4 C 4,4 C 2,8 C 80 % 0 lf 997,4 hPa 0,0 l/m 0 min 0 min 9 W/m 38,3 km/h (5 Bft) 100,00 %
15.03.2018 06:38 4,4 C 4,4 C 2,8 C 80 % 0 lf 997,4 hPa 0,0 l/m 0 min 0 min 11 W/m 36,0 km/h (5 Bft) 100,00 %
15.03.2018 06:40 4,4 C 4,4 C 2,8 C 80 % 0 lf 997,6 hPa 0,0 l/m 0 min 0 min 12 W/m 36,0 km/h (5 Bft) 100,00 %
15.03.2018 06:42 4,4 C 4,4 C 2,8 C 80 % 0 lf 997,5 hPa 0,0 l/m 0 min 0 min 13 W/m 36,0 km/h (5 Bft) 95,74 %
15.03.2018 06:44 4,4 C 4,4 C 2,8 C 80 % 0 lf 997,5 hPa 0,0 l/m 0 min 0 min 14 W/m 36,0 km/h (5 Bft) 100,00 %
15.03.2018 06:46 4,4 C 4,4 C 2,8 C 80 % 0 lf 997,4 hPa 0,0 l/m 0 min 0 min 15 W/m 31,5 km/h (5 Bft) 100,00 %
15.03.2018 06:48 4,4 C 4,4 C 2,8 C 81 % 0 lf 997,5 hPa 0,0 l/m 0 min 0 min 16 W/m 27,0 km/h (4 Bft) 97,87 %
15.03.2018 06:50 4,4 C 4,4 C 2,8 C 81 % 0 lf 997,5 hPa 0,0 l/m 0 min 0 min 17 W/m 31,5 km/h (5 Bft) 98,28 %
15.03.2018 06:52 4,4 C 4,4 C 2,8 C 81 % 0 lf 997,4 hPa 0,0 l/m 0 min 0 min 18 W/m 31,5 km/h (5 Bft) 97,14 %
15.03.2018 06:54 4,4 C 4,4 C 2,8 C 81 % 0 lf 997,4 hPa 0,0 l/m 0 min 0 min 18 W/m 31,5 km/h (5 Bft) 97,87 %
15.03.2018 06:56 4,4 C 4,4 C 2,8 C 81 % 0 lf 997,4 hPa 0,0 l/m 0 min 0 min 18 W/m 31,5 km/h (5 Bft) 97,87 %
15.03.2018 06:58 4,4 C 4,4 C 2,8 C 81 % 0 lf 997,4 hPa 0,0 l/m 0 min 0 min 19 W/m 24,8 km/h (4 Bft) 97,87 %
15.03.2018 07:00 4,4 C 4,4 C 2,8 C 81 % 0 lf 997,4 hPa 0,0 l/m 2 min 0 min 21 W/m 29,3 km/h (5 Bft) 97,87 %
15.03.2018 07:02 4,4 C 4,4 C 2,8 C 81 % 0 lf 997,4 hPa 0,0 l/m 2 min 0 min 23 W/m 27,0 km/h (4 Bft) 95,65 %
15.03.2018 07:04 4,4 C 4,4 C 2,8 C 81 % 0 lf 997,3 hPa 0,0 l/m 2 min 0 min 26 W/m 24,8 km/h (4 Bft) 97,87 %
15.03.2018 07:06 4,4 C 4,4 C 2,8 C 81 % 0 lf 997,3 hPa 0,0 l/m 2 min 0 min 30 W/m 22,5 km/h (4 Bft) 95,74 %
15.03.2018 07:08 4,4 C 4,4 C 2,8 C 81 % 0 lf 997,2 hPa 0,0 l/m 2 min 0 min 34 W/m 31,5 km/h (5 Bft) 95,74 %
15.03.2018 07:10 4,4 C 4,4 C 2,8 C 81 % 0 lf 997,2 hPa 0,0 l/m 2 min 0 min 39 W/m 29,3 km/h (5 Bft) 97,87 %
15.03.2018 07:12 4,4 C 4,4 C 2,8 C 81 % 0 lf 997,3 hPa 0,0 l/m 2 min 0 min 43 W/m 36,0 km/h (5 Bft) 97,87 %
15.03.2018 07:14 4,4 C 4,4 C 2,8 C 81 % 0 lf 997,2 hPa 0,0 l/m 2 min 0 min 48 W/m 24,8 km/h (4 Bft) 95,65 %
15.03.2018 07:16 4,4 C 4,4 C 3,3 C 81 % 0 lf 997,3 hPa 0,0 l/m 2 min 0 min 53 W/m 31,5 km/h (5 Bft) 93,62 %
15.03.2018 07:18 4,4 C 4,4 C 3,3 C 81 % 0 lf 997,3 hPa 0,0 l/m 2 min 0 min 57 W/m 36,0 km/h (5 Bft) 95,74 %
15.03.2018 07:20 4,5 C 4,4 C 3,3 C 81 % 0 lf 997,3 hPa 0,0 l/m 2 min 0 min 62 W/m 31,5 km/h (5 Bft) 98,31 %
15.03.2018 07:22 4,5 C 5,0 C 3,3 C 81 % 0 lf 997,3 hPa 0,0 l/m 2 min 0 min 60 W/m 24,8 km/h (4 Bft) 94,29 %
15.03.2018 07:24 4,5 C 5,0 C 3,3 C 81 % 0 lf 997,3 hPa 0,0 l/m 2 min 0 min 54 W/m 29,3 km/h (5 Bft) 95,74 %
15.03.2018 07:26 4,6 C 5,0 C 3,3 C 81 % 0 lf 997,3 hPa 0,0 l/m 2 min 0 min 56 W/m 38,3 km/h (5 Bft) 93,48 %
15.03.2018 07:28 4,6 C 5,0 C 3,3 C 81 % 0 lf 997,3 hPa 0,0 l/m 2 min 0 min 58 W/m 38,3 km/h (5 Bft) 95,74 %
15.03.2018 07:30 4,6 C 5,0 C 3,3 C 81 % 0 lf 997,3 hPa 0,0 l/m 2 min 0 min 64 W/m 38,3 km/h (5 Bft) 95,74 %
15.03.2018 07:32 4,6 C 5,0 C 3,3 C 81 % 0 lf 997,4 hPa 0,0 l/m 2 min 0 min 72 W/m 33,8 km/h (5 Bft) 93,62 %
15.03.2018 07:34 4,6 C 5,0 C 3,3 C 81 % 0 lf 997,3 hPa 0,0 l/m 2 min 0 min 80 W/m 36,0 km/h (5 Bft) 94,44 %
15.03.2018 07:36 4,7 C 5,0 C 3,3 C 80 % 0 lf 997,3 hPa 0,0 l/m 2 min 0 min 92 W/m 40,6 km/h (6 Bft) 87,23 %
15.03.2018 07:38 4,7 C 5,0 C 3,3 C 80 % 0 lf 997,2 hPa 0,0 l/m 2 min 0 min 86 W/m 49,6 km/h (6 Bft) 92,00 %
15.03.2018 07:40 4,7 C 5,0 C 3,9 C 80 % 0 lf 997,3 hPa 0,0 l/m 2 min 0 min 77 W/m 38,3 km/h (5 Bft) 94,44 %
15.03.2018 07:42 4,8 C 5,0 C 3,9 C 80 % 0 lf 997,3 hPa 0,0 l/m 2 min 0 min 80 W/m 40,6 km/h (6 Bft) 95,74 %
15.03.2018 07:44 4,8 C 5,6 C 3,9 C 80 % 0 lf 997,2 hPa 0,0 l/m 2 min 0 min 96 W/m 36,0 km/h (5 Bft) 95,74 %
15.03.2018 07:46 4,8 C 5,6 C 3,9 C 80 % 0 lf 997,2 hPa 0,0 l/m 2 min 0 min 110 W/m 38,3 km/h (5 Bft) 93,62 %
15.03.2018 07:48 4,9 C 6,1 C 3,9 C 80 % 0 lf 997,2 hPa 0,0 l/m 2 min 0 min 117 W/m 42,8 km/h (6 Bft) 90,74 %
15.03.2018 07:50 4,9 C 6,7 C 3,9 C 80 % 0 lf 997,1 hPa 0,0 l/m 2 min 0 min 120 W/m 29,3 km/h (5 Bft) 91,49 %
15.03.2018 07:52 4,9 C 6,7 C 3,9 C 80 % 0 lf 997,1 hPa 0,0 l/m 2 min 0 min 120 W/m 45,1 km/h (6 Bft) 91,49 %
15.03.2018 07:54 5,0 C 7,2 C 3,9 C 80 % 0 lf 997,2 hPa 0,0 l/m 2 min 0 min 119 W/m 40,6 km/h (6 Bft) 93,48 %
15.03.2018 07:56 5,1 C 7,2 C 3,9 C 80 % 0 lf 997,1 hPa 0,0 l/m 2 min 0 min 142 W/m 42,8 km/h (6 Bft) 94,00 %
15.03.2018 07:58 5,1 C 7,8 C 3,9 C 80 % 0 lf 997,1 hPa 0,0 l/m 2 min 0 min 154 W/m 31,5 km/h (5 Bft) 94,59 %
15.03.2018 08:00 5,2 C 8,3 C 3,9 C 80 % 0 lf 997,1 hPa 0,0 l/m 2 min 0 min 158 W/m 29,3 km/h (5 Bft) 91,49 %
15.03.2018 08:02 5,2 C 8,3 C 3,9 C 79 % 0 lf 997,1 hPa 0,0 l/m 2 min 0 min 152 W/m 33,8 km/h (5 Bft) 93,48 %
15.03.2018 08:04 5,3 C 7,2 C 3,9 C 79 % 0 lf 997,0 hPa 0,0 l/m 2 min 0 min 131 W/m 51,8 km/h (7 Bft) 89,36 %
15.03.2018 08:06 5,3 C 6,7 C 3,9 C 79 % 0 lf 997,0 hPa 0,0 l/m 0 min 0 min 91 W/m 33,8 km/h (5 Bft) 93,62 %
15.03.2018 08:08 5,3 C 6,1 C 3,9 C 79 % 0 lf 997,0 hPa 0,0 l/m 0 min 0 min 78 W/m 29,3 km/h (5 Bft) 93,62 %
15.03.2018 08:10 5,3 C 6,1 C 3,9 C 79 % 0 lf 997,0 hPa 0,0 l/m 0 min 0 min 82 W/m 40,6 km/h (6 Bft) 94,44 %
15.03.2018 08:12 5,3 C 5,6 C 3,9 C 79 % 0 lf 997,0 hPa 0,0 l/m 0 min 0 min 90 W/m 40,6 km/h (6 Bft) 93,62 %
15.03.2018 08:14 5,3 C 5,6 C 3,9 C 79 % 0 lf 997,0 hPa 0,0 l/m 2 min 0 min 113 W/m 40,6 km/h (6 Bft) 94,00 %
15.03.2018 08:16 5,3 C 6,1 C 3,9 C 79 % 0 lf 997,0 hPa 0,0 l/m 0 min 0 min 97 W/m 29,3 km/h (5 Bft) 94,44 %
15.03.2018 08:18 5,3 C 6,7 C 3,9 C 79 % 0 lf 997,0 hPa 0,0 l/m 2 min 0 min 131 W/m 38,3 km/h (5 Bft) 95,74 %
15.03.2018 08:20 5,4 C 7,8 C 3,9 C 79 % 0 lf 997,0 hPa 0,0 l/m 2 min 0 min 187 W/m 47,3 km/h (6 Bft) 95,74 %
15.03.2018 08:22 5,4 C 8,3 C 3,9 C 79 % 0 lf 997,0 hPa 0,0 l/m 2 min 0 min 205 W/m 40,6 km/h (6 Bft) 97,87 %
15.03.2018 08:24 5,4 C 8,3 C 3,9 C 79 % 0 lf 997,0 hPa 0,0 l/m 2 min 0 min 212 W/m 29,3 km/h (5 Bft) 95,65 %
15.03.2018 08:26 5,6 C 8,3 C 4,4 C 79 % 0 lf 997,1 hPa 0,0 l/m 2 min 0 min 232 W/m 40,6 km/h (6 Bft) 95,74 %
15.03.2018 08:28 5,6 C 8,9 C 5,0 C 79 % 0 lf 997,0 hPa 0,0 l/m 2 min 0 min 240 W/m 33,8 km/h (5 Bft) 95,74 %
15.03.2018 08:30 5,7 C 9,4 C 5,0 C 78 % 0 lf 997,1 hPa 0,0 l/m 2 min 0 min 262 W/m 31,5 km/h (5 Bft) 100,00 %
15.03.2018 08:32 5,8 C 9,4 C 5,6 C 78 % 0 lf 997,0 hPa 0,0 l/m 2 min 0 min 276 W/m 36,0 km/h (5 Bft) 95,74 %
15.03.2018 08:34 5,9 C 9,4 C 6,1 C 78 % 0 lf 997,1 hPa 0,0 l/m 2 min 0 min 283 W/m 45,1 km/h (6 Bft) 97,87 %
15.03.2018 08:36 6,0 C 9,4 C 6,1 C 77 % 0 lf 997,1 hPa 0,0 l/m 2 min 0 min 294 W/m 45,1 km/h (6 Bft) 98,00 %
15.03.2018 08:38 6,1 C 10,0 C 6,1 C 77 % 0 lf 997,1 hPa 0,0 l/m 2 min 0 min 293 W/m 31,5 km/h (5 Bft) 97,87 %
15.03.2018 08:40 6,2 C 10,0 C 6,7 C 77 % 0 lf 997,0 hPa 0,0 l/m 2 min 0 min 305 W/m 36,0 km/h (5 Bft) 100,00 %
15.03.2018 08:42 6,3 C 10,6 C 6,7 C 77 % 0 lf 997,0 hPa 0,0 l/m 2 min 0 min 300 W/m 24,8 km/h (4 Bft) 97,87 %
15.03.2018 08:44 6,4 C 10,0 C 6,7 C 77 % 0 lf 997,0 hPa 0,0 l/m 2 min 0 min 316 W/m 29,3 km/h (5 Bft) 100,00 %
15.03.2018 08:46 6,4 C 11,1 C 6,7 C 77 % 0 lf 997,0 hPa 0,0 l/m 2 min 0 min 319 W/m 38,3 km/h (5 Bft) 94,44 %
15.03.2018 08:48 6,6 C 9,4 C 6,7 C 76 % 0 lf 997,2 hPa 0,0 l/m 2 min 0 min 243 W/m 40,6 km/h (6 Bft) 96,00 %
15.03.2018 08:50 6,6 C 8,9 C 6,1 C 76 % 0 lf 997,1 hPa 0,0 l/m 2 min 0 min 217 W/m 58,6 km/h (7 Bft) 100,00 %
15.03.2018 08:52 6,6 C 8,9 C 6,1 C 76 % 0 lf 997,0 hPa 0,0 l/m 2 min 0 min 220 W/m 36,0 km/h (5 Bft) 100,00 %
15.03.2018 08:54 6,7 C 8,3 C 6,1 C 76 % 0 lf 997,0 hPa 0,0 l/m 2 min 0 min 225 W/m 54,1 km/h (7 Bft) 100,00 %
15.03.2018 08:56 6,7 C 8,9 C 6,1 C 76 % 0 lf 997,1 hPa 0,0 l/m 2 min 0 min 235 W/m 42,8 km/h (6 Bft) 97,87 %
15.03.2018 08:58 6,6 C 8,3 C 6,1 C 75 % 0 lf 997,0 hPa 0,0 l/m 2 min 0 min 244 W/m 51,8 km/h (7 Bft) 100,00 %
15.03.2018 09:00 6,6 C 7,8 C 6,1 C 75 % 0 lf 996,9 hPa 0,0 l/m 2 min 0 min 227 W/m 65,3 km/h (8 Bft) 97,83 %
15.03.2018 09:02 6,6 C 8,3 C 6,1 C 75 % 0 lf 997,0 hPa 0,0 l/m 2 min 0 min 209 W/m 45,1 km/h (6 Bft) 96,36 %
15.03.2018 09:04 6,6 C 7,8 C 6,1 C 75 % 0 lf 997,0 hPa 0,0 l/m 2 min 0 min 211 W/m 38,3 km/h (5 Bft) 93,88 %
15.03.2018 09:08 6,7 C 8,3 C 6,7 C 75 % 0 lf 996,9 hPa 0,0 l/m 4 min 0 min 236 W/m 56,3 km/h (7 Bft) 98,81 %
15.03.2018 09:10 6,7 C 8,9 C 6,7 C 75 % 0 lf 996,9 hPa 0,0 l/m 2 min 0 min 276 W/m 31,5 km/h (5 Bft) 95,74 %
15.03.2018 09:12 6,7 C 9,4 C 6,7 C 76 % 0 lf 996,9 hPa 0,0 l/m 2 min 0 min 279 W/m 38,3 km/h (5 Bft) 91,30 %
15.03.2018 09:14 6,7 C 9,4 C 7,2 C 76 % 0 lf 996,9 hPa 0,0 l/m 2 min 0 min 287 W/m 36,0 km/h (5 Bft) 98,21 %
15.03.2018 09:16 6,8 C 9,4 C 7,2 C 76 % 0 lf 996,9 hPa 0,0 l/m 2 min 0 min 290 W/m 33,8 km/h (5 Bft) 95,65 %
15.03.2018 09:18 6,8 C 9,4 C 7,2 C 76 % 0 lf 996,8 hPa 0,0 l/m 2 min 0 min 281 W/m 31,5 km/h (5 Bft) 97,87 %
15.03.2018 09:20 6,9 C 8,9 C 7,2 C 75 % 0 lf 996,8 hPa 0,0 l/m 2 min 0 min 273 W/m 40,6 km/h (6 Bft) 95,74 %
15.03.2018 09:22 6,9 C 8,9 C 7,2 C 75 % 0 lf 996,8 hPa 0,0 l/m 2 min 0 min 270 W/m 47,3 km/h (6 Bft) 97,87 %
15.03.2018 09:24 7,0 C 8,9 C 7,2 C 75 % 0 lf 996,7 hPa 0,0 l/m 2 min 0 min 275 W/m 42,8 km/h (6 Bft) 98,00 %
15.03.2018 09:26 7,0 C 9,4 C 7,2 C 75 % 0 lf 996,8 hPa 0,0 l/m 2 min 0 min 284 W/m 38,3 km/h (5 Bft) 97,14 %
15.03.2018 09:28 7,1 C 9,4 C 7,2 C 75 % 0 lf 996,7 hPa 0,0 l/m 2 min 0 min 306 W/m 38,3 km/h (5 Bft) 95,74 %
15.03.2018 09:30 7,1 C 9,4 C 7,8 C 75 % 0 lf 996,8 hPa 0,0 l/m 2 min 0 min 310 W/m 51,8 km/h (7 Bft) 97,87 %
15.03.2018 09:32 7,2 C 10,0 C 7,8 C 75 % 0 lf 996,7 hPa 0,0 l/m 2 min 0 min 321 W/m 38,3 km/h (5 Bft) 96,36 %
15.03.2018 09:34 7,2 C 10,0 C 7,8 C 75 % 0 lf 996,7 hPa 0,0 l/m 2 min 0 min 333 W/m 36,0 km/h (5 Bft) 98,00 %
15.03.2018 09:36 7,2 C 10,0 C 8,3 C 75 % 0 lf 996,6 hPa 0,0 l/m 2 min 0 min 344 W/m 42,8 km/h (6 Bft) 95,74 %
15.03.2018 09:38 7,3 C 10,0 C 7,8 C 74 % 0 lf 996,7 hPa 0,0 l/m 2 min 0 min 341 W/m 40,6 km/h (6 Bft) 95,65 %
15.03.2018 09:40 7,3 C 10,0 C 7,8 C 74 % 0 lf 996,6 hPa 0,0 l/m 2 min 0 min 353 W/m 42,8 km/h (6 Bft) 94,44 %
15.03.2018 09:42 7,4 C 10,0 C 7,8 C 74 % 0 lf 996,6 hPa 0,0 l/m 2 min 0 min 349 W/m 56,3 km/h (7 Bft) 100,00 %
15.03.2018 09:44 7,4 C 10,0 C 7,8 C 74 % 0 lf 996,5 hPa 0,0 l/m 2 min 0 min 350 W/m 47,3 km/h (6 Bft) 95,74 %
15.03.2018 09:46 7,5 C 10,6 C 7,8 C 74 % 0 lf 996,5 hPa 0,0 l/m 2 min 0 min 357 W/m 33,8 km/h (5 Bft) 100,00 %
15.03.2018 09:48 7,6 C 11,1 C 7,8 C 74 % 0 lf 996,4 hPa 0,0 l/m 2 min 0 min 360 W/m 47,3 km/h (6 Bft) 100,00 %
15.03.2018 09:50 7,6 C 11,7 C 8,3 C 74 % 0 lf 996,5 hPa 0,0 l/m 2 min 0 min 360 W/m 38,3 km/h (5 Bft) 100,00 %
15.03.2018 09:52 7,7 C 10,6 C 8,3 C 74 % 0 lf 996,5 hPa 0,0 l/m 2 min 0 min 360 W/m 36,0 km/h (5 Bft) 100,00 %
15.03.2018 09:54 7,7 C 11,7 C 8,9 C 73 % 0 lf 996,4 hPa 0,0 l/m 2 min 0 min 363 W/m 40,6 km/h (6 Bft) 100,00 %
15.03.2018 09:56 7,8 C 11,7 C 8,9 C 73 % 0 lf 996,4 hPa 0,0 l/m 2 min 0 min 368 W/m 49,6 km/h (6 Bft) 95,74 %
15.03.2018 09:58 7,8 C 11,1 C 9,4 C 73 % 0 lf 996,5 hPa 0,0 l/m 2 min 0 min 376 W/m 42,8 km/h (6 Bft) 100,00 %
15.03.2018 10:00 7,9 C 11,1 C 10,0 C 73 % 0 lf 996,4 hPa 0,0 l/m 2 min 0 min 379 W/m 42,8 km/h (6 Bft) 95,74 %
15.03.2018 10:02 8,0 C 12,2 C 10,0 C 73 % 0 lf 996,4 hPa 0,0 l/m 2 min 0 min 384 W/m 24,8 km/h (4 Bft) 94,44 %
15.03.2018 10:04 8,1 C 12,2 C 10,6 C 73 % 0 lf 996,4 hPa 0,0 l/m 2 min 0 min 404 W/m 33,8 km/h (5 Bft) 100,00 %
15.03.2018 10:08 8,2 C 11,7 C 10,6 C 72 % 0 lf 996,3 hPa 0,0 l/m 4 min 0 min 398 W/m 45,1 km/h (6 Bft) 100,00 %
15.03.2018 10:10 8,3 C 11,7 C 10,0 C 72 % 0 lf 996,4 hPa 0,0 l/m 2 min 0 min 376 W/m 54,1 km/h (7 Bft) 97,83 %
15.03.2018 10:12 8,3 C 11,7 C 10,0 C 72 % 0 lf 996,3 hPa 0,0 l/m 2 min 0 min 364 W/m 36,0 km/h (5 Bft) 93,62 %
15.03.2018 10:14 8,3 C 10,6 C 10,0 C 71 % 0 lf 996,3 hPa 0,0 l/m 2 min 0 min 352 W/m 38,3 km/h (5 Bft) 97,87 %
15.03.2018 10:16 8,4 C 11,1 C 10,0 C 71 % 0 lf 996,2 hPa 0,0 l/m 2 min 0 min 343 W/m 36,0 km/h (5 Bft) 100,00 %
15.03.2018 10:18 8,4 C 10,6 C 10,0 C 71 % 0 lf 996,2 hPa 0,0 l/m 2 min 0 min 346 W/m 47,3 km/h (6 Bft) 98,15 %
15.03.2018 10:20 8,4 C 11,1 C 10,0 C 71 % 0 lf 996,1 hPa 0,0 l/m 2 min 0 min 348 W/m 47,3 km/h (6 Bft) 95,74 %
15.03.2018 10:22 8,5 C 11,1 C 9,4 C 71 % 0 lf 996,1 hPa 0,0 l/m 2 min 0 min 353 W/m 51,8 km/h (7 Bft) 97,87 %
15.03.2018 10:24 8,5 C 11,1 C 9,4 C 71 % 0 lf 996,1 hPa 0,0 l/m 2 min 0 min 363 W/m 42,8 km/h (6 Bft) 91,49 %
15.03.2018 10:26 8,6 C 11,7 C 10,0 C 71 % 0 lf 996,1 hPa 0,0 l/m 2 min 0 min 382 W/m 54,1 km/h (7 Bft) 93,88 %
15.03.2018 10:28 8,6 C 11,7 C 10,0 C 71 % 0 lf 996,1 hPa 0,0 l/m 2 min 0 min 400 W/m 58,6 km/h (7 Bft) 94,59 %
15.03.2018 10:30 8,7 C 11,7 C 10,6 C 71 % 0 lf 996,0 hPa 0,0 l/m 2 min 0 min 391 W/m 36,0 km/h (5 Bft) 95,74 %
15.03.2018 10:32 8,7 C 12,8 C 11,1 C 71 % 0 lf 996,0 hPa 0,0 l/m 2 min 0 min 417 W/m 36,0 km/h (5 Bft) 95,65 %
15.03.2018 10:34 8,8 C 12,2 C 10,6 C 71 % 0 lf 995,9 hPa 0,0 l/m 2 min 0 min 443 W/m 42,8 km/h (6 Bft) 93,62 %
15.03.2018 10:36 8,9 C 12,8 C 11,1 C 71 % 0 lf 995,9 hPa 0,0 l/m 2 min 0 min 475 W/m 49,6 km/h (6 Bft) 92,73 %
15.03.2018 10:38 8,9 C 12,2 C 11,1 C 70 % 0 lf 995,9 hPa 0,0 l/m 2 min 0 min 477 W/m 40,6 km/h (6 Bft) 93,88 %
15.03.2018 10:40 9,0 C 12,2 C 11,1 C 70 % 0 lf 995,9 hPa 0,0 l/m 2 min 0 min 463 W/m 36,0 km/h (5 Bft) 91,89 %
15.03.2018 10:42 9,1 C 12,8 C 11,7 C 70 % 0 lf 995,9 hPa 0,0 l/m 2 min 0 min 472 W/m 38,3 km/h (5 Bft) 91,49 %
15.03.2018 10:44 9,2 C 12,8 C 11,7 C 69 % 0 lf 995,9 hPa 0,0 l/m 2 min 0 min 478 W/m 36,0 km/h (5 Bft) 89,36 %
15.03.2018 10:46 9,2 C 12,8 C 11,7 C 69 % 0 lf 995,9 hPa 0,0 l/m 2 min 0 min 478 W/m 31,5 km/h (5 Bft) 91,67 %
15.03.2018 10:48 9,3 C 13,9 C 12,2 C 70 % 0 lf 995,9 hPa 0,0 l/m 2 min 0 min 460 W/m 36,0 km/h (5 Bft) 91,49 %
15.03.2018 10:50 9,4 C 13,3 C 12,2 C 69 % 0 lf 995,9 hPa 0,0 l/m 2 min 0 min 451 W/m 31,5 km/h (5 Bft) 93,22 %
15.03.2018 10:52 9,5 C 13,3 C 12,2 C 70 % 0 lf 995,9 hPa 0,0 l/m 2 min 0 min 454 W/m 33,8 km/h (5 Bft) 91,43 %
15.03.2018 10:54 9,6 C 13,3 C 12,2 C 69 % 0 lf 995,8 hPa 0,0 l/m 2 min 0 min 455 W/m 42,8 km/h (6 Bft) 91,49 %
15.03.2018 10:56 9,7 C 13,3 C 12,2 C 69 % 0 lf 995,8 hPa 0,0 l/m 2 min 0 min 460 W/m 33,8 km/h (5 Bft) 91,49 %
15.03.2018 10:58 9,7 C 14,4 C 12,2 C 69 % 0 lf 995,8 hPa 0,0 l/m 2 min 0 min 476 W/m 40,6 km/h (6 Bft) 93,62 %
15.03.2018 11:00 9,8 C 13,9 C 12,8 C 69 % 0 lf 995,9 hPa 0,0 l/m 2 min 0 min 482 W/m 38,3 km/h (5 Bft) 93,62 %
15.03.2018 11:02 9,8 C 12,8 C 12,2 C 68 % 0 lf 995,8 hPa 0,0 l/m 2 min 0 min 457 W/m 24,8 km/h (4 Bft) 93,48 %
15.03.2018 11:04 9,9 C 13,3 C 12,2 C 68 % 0 lf 995,8 hPa 0,0 l/m 2 min 0 min 412 W/m 45,1 km/h (6 Bft) 93,62 %
15.03.2018 11:06 9,9 C 12,2 C 11,7 C 68 % 0 lf 995,8 hPa 0,0 l/m 2 min 0 min 383 W/m 36,0 km/h (5 Bft) 95,83 %
15.03.2018 11:08 9,9 C 12,2 C 11,7 C 68 % 0 lf 995,8 hPa 0,0 l/m 2 min 0 min 338 W/m 33,8 km/h (5 Bft) 95,74 %
15.03.2018 11:10 9,9 C 12,2 C 11,7 C 68 % 0 lf 995,8 hPa 0,0 l/m 2 min 0 min 403 W/m 38,3 km/h (5 Bft) 93,62 %
15.03.2018 11:12 10,0 C 12,2 C 11,7 C 68 % 0 lf 995,7 hPa 0,0 l/m 2 min 0 min 362 W/m 22,5 km/h (4 Bft) 93,62 %
15.03.2018 11:14 10,1 C 12,2 C 11,7 C 69 % 0 lf 995,7 hPa 0,0 l/m 2 min 0 min 357 W/m 33,8 km/h (5 Bft) 93,48 %
15.03.2018 11:16 10,1 C 11,7 C 11,7 C 68 % 0 lf 995,7 hPa 0,0 l/m 2 min 0 min 306 W/m 29,3 km/h (5 Bft) 95,74 %
15.03.2018 11:18 10,1 C 11,7 C 11,7 C 68 % 0 lf 995,7 hPa 0,0 l/m 2 min 0 min 276 W/m 27,0 km/h (4 Bft) 93,62 %
15.03.2018 11:20 10,2 C 11,1 C 11,1 C 69 % 0 lf 995,7 hPa 0,0 l/m 0 min 0 min 253 W/m 33,8 km/h (5 Bft) 93,22 %
15.03.2018 11:22 10,1 C 11,1 C 11,1 C 67 % 0 lf 995,7 hPa 0,0 l/m 0 min 0 min 249 W/m 45,1 km/h (6 Bft) 100,00 %
15.03.2018 11:24 10,1 C 11,1 C 11,1 C 68 % 0 lf 995,7 hPa 0,0 l/m 0 min 0 min 254 W/m 36,0 km/h (5 Bft) 97,87 %
15.03.2018 11:26 10,1 C 11,7 C 11,1 C 68 % 0 lf 995,6 hPa 0,0 l/m 0 min 0 min 257 W/m 31,5 km/h (5 Bft) 97,83 %
15.03.2018 11:28 10,1 C 11,1 C 11,1 C 68 % 0 lf 995,7 hPa 0,0 l/m 0 min 0 min 262 W/m 36,0 km/h (5 Bft) 97,87 %
15.03.2018 11:30 10,2 C 11,1 C 11,1 C 68 % 0 lf 995,7 hPa 0,0 l/m 0 min 0 min 262 W/m 24,8 km/h (4 Bft) 97,87 %
15.03.2018 11:32 10,2 C 11,1 C 11,1 C 68 % 0 lf 995,7 hPa 0,0 l/m 0 min 0 min 252 W/m 36,0 km/h (5 Bft) 100,00 %
15.03.2018 11:34 10,2 C 11,1 C 11,1 C 67 % 0 lf 995,7 hPa 0,0 l/m 0 min 0 min 247 W/m 33,8 km/h (5 Bft) 100,00 %
15.03.2018 11:36 10,1 C 11,1 C 11,1 C 67 % 0 lf 995,6 hPa 0,0 l/m 0 min 0 min 253 W/m 29,3 km/h (5 Bft) 91,30 %
15.03.2018 11:38 10,1 C 11,1 C 11,1 C 67 % 0 lf 995,6 hPa 0,0 l/m 0 min 0 min 265 W/m 29,3 km/h (5 Bft) 95,74 %
15.03.2018 11:40 10,2 C 11,1 C 11,1 C 67 % 0 lf 995,6 hPa 0,0 l/m 0 min 0 min 264 W/m 40,6 km/h (6 Bft) 95,74 %
15.03.2018 11:42 10,2 C 11,1 C 11,1 C 67 % 0 lf 995,6 hPa 0,0 l/m 0 min 0 min 259 W/m 29,3 km/h (5 Bft) 97,87 %
15.03.2018 11:44 10,2 C 11,7 C 11,1 C 67 % 0 lf 995,6 hPa 0,0 l/m 0 min 0 min 257 W/m 24,8 km/h (4 Bft) 97,87 %
15.03.2018 11:46 10,2 C 11,7 C 11,7 C 67 % 0 lf 995,6 hPa 0,0 l/m 0 min 0 min 254 W/m 33,8 km/h (5 Bft) 97,87 %
15.03.2018 11:48 10,2 C 11,7 C 11,7 C 68 % 0 lf 995,5 hPa 0,0 l/m 0 min 0 min 249 W/m 27,0 km/h (4 Bft) 97,83 %
15.03.2018 11:50 10,3 C 11,7 C 11,7 C 68 % 0 lf 995,5 hPa 0,0 l/m 0 min 0 min 233 W/m 36,0 km/h (5 Bft) 95,74 %
15.03.2018 11:52 10,3 C 11,1 C 11,7 C 67 % 0 lf 995,5 hPa 0,0 l/m 0 min 0 min 222 W/m 38,3 km/h (5 Bft) 95,74 %
15.03.2018 11:54 10,3 C 11,1 C 11,1 C 67 % 0 lf 995,5 hPa 0,0 l/m 0 min 0 min 220 W/m 42,8 km/h (6 Bft) 97,87 %
15.03.2018 11:56 10,3 C 10,6 C 11,1 C 66 % 0 lf 995,4 hPa 0,0 l/m 0 min 0 min 213 W/m 29,3 km/h (5 Bft) 97,87 %
15.03.2018 11:58 10,3 C 11,1 C 10,6 C 66 % 0 lf 995,4 hPa 0,0 l/m 0 min 0 min 206 W/m 36,0 km/h (5 Bft) 95,74 %
15.03.2018 12:00 10,3 C 11,1 C 11,1 C 66 % 0 lf 995,4 hPa 0,0 l/m 0 min 0 min 201 W/m 27,0 km/h (4 Bft) 97,83 %
15.03.2018 12:02 10,3 C 11,1 C 10,6 C 66 % 0 lf 995,4 hPa 0,0 l/m 0 min 0 min 194 W/m 33,8 km/h (5 Bft) 95,74 %
15.03.2018 12:04 10,3 C 11,1 C 10,6 C 66 % 0 lf 995,4 hPa 0,0 l/m 0 min 0 min 192 W/m 29,3 km/h (5 Bft) 97,87 %
15.03.2018 12:08 10,4 C 11,1 C 10,6 C 66 % 0 lf 995,4 hPa 0,0 l/m 0 min 0 min 198 W/m 40,6 km/h (6 Bft) 95,83 %
15.03.2018 12:10 10,4 C 11,1 C 10,6 C 66 % 0 lf 995,4 hPa 0,0 l/m 0 min 0 min 202 W/m 38,3 km/h (5 Bft) 100,00 %
15.03.2018 12:12 10,4 C 11,7 C 11,1 C 67 % 0 lf 995,4 hPa 0,0 l/m 0 min 0 min 206 W/m 22,5 km/h (4 Bft) 97,87 %
15.03.2018 12:14 10,4 C 11,7 C 11,1 C 67 % 0 lf 995,3 hPa 0,0 l/m 0 min 0 min 208 W/m 22,5 km/h (4 Bft) 100,00 %
15.03.2018 12:16 10,4 C 11,1 C 11,1 C 66 % 0 lf 995,3 hPa 0,0 l/m 0 min 0 min 204 W/m 29,3 km/h (5 Bft) 97,83 %
15.03.2018 12:18 10,5 C 11,7 C 11,1 C 66 % 0 lf 995,4 hPa 0,0 l/m 0 min 0 min 201 W/m 24,8 km/h (4 Bft) 100,00 %
15.03.2018 12:20 10,5 C 11,1 C 11,1 C 66 % 0 lf 995,4 hPa 0,0 l/m 0 min 0 min 201 W/m 38,3 km/h (5 Bft) 100,00 %
15.03.2018 12:22 10,5 C 11,7 C 11,1 C 66 % 0 lf 995,3 hPa 0,0 l/m 0 min 0 min 208 W/m 31,5 km/h (5 Bft) 100,00 %
15.03.2018 12:24 10,6 C 11,7 C 11,1 C 66 % 0 lf 995,3 hPa 0,0 l/m 0 min 0 min 219 W/m 33,8 km/h (5 Bft) 100,00 %
15.03.2018 12:26 10,6 C 11,7 C 11,1 C 66 % 0 lf 995,4 hPa 0,0 l/m 0 min 0 min 221 W/m 31,5 km/h (5 Bft) 100,00 %
15.03.2018 12:28 10,6 C 11,7 C 11,1 C 66 % 0 lf 995,4 hPa 0,0 l/m 0 min 0 min 218 W/m 22,5 km/h (4 Bft) 100,00 %
15.03.2018 12:30 10,6 C 11,7 C 11,1 C 66 % 0 lf 995,4 hPa 0,0 l/m 0 min 0 min 222 W/m 24,8 km/h (4 Bft) 100,00 %
15.03.2018 12:32 10,7 C 11,7 C 11,7 C 66 % 0 lf 995,5 hPa 0,0 l/m 0 min 0 min 231 W/m 33,8 km/h (5 Bft) 100,00 %
15.03.2018 12:34 10,7 C 12,2 C 11,7 C 66 % 0 lf 995,5 hPa 0,0 l/m 0 min 0 min 229 W/m 29,3 km/h (5 Bft) 97,87 %
15.03.2018 12:36 10,7 C 11,7 C 11,7 C 66 % 0 lf 995,4 hPa 0,0 l/m 0 min 0 min 222 W/m 24,8 km/h (4 Bft) 100,00 %
15.03.2018 12:38 10,8 C 11,7 C 11,7 C 66 % 0 lf 995,4 hPa 0,0 l/m 0 min 0 min 213 W/m 24,8 km/h (4 Bft) 100,00 %
15.03.2018 12:40 10,8 C 11,7 C 11,7 C 66 % 0 lf 995,4 hPa 0,0 l/m 0 min 0 min 211 W/m 24,8 km/h (4 Bft) 100,00 %
15.03.2018 12:42 10,8 C 12,2 C 11,7 C 66 % 0 lf 995,4 hPa 0,0 l/m 0 min 0 min 214 W/m 20,3 km/h (4 Bft) 100,00 %
15.03.2018 12:44 10,9 C 12,2 C 11,7 C 67 % 0 lf 995,4 hPa 0,0 l/m 0 min 0 min 216 W/m 24,8 km/h (4 Bft) 100,00 %
15.03.2018 12:46 10,9 C 11,7 C 11,7 C 65 % 0 lf 995,3 hPa 0,0 l/m 0 min 0 min 219 W/m 24,8 km/h (4 Bft) 93,62 %
15.03.2018 12:48 10,9 C 11,7 C 11,7 C 65 % 0 lf 995,2 hPa 0,0 l/m 0 min 0 min 227 W/m 22,5 km/h (4 Bft) 100,00 %
15.03.2018 12:50 10,9 C 12,2 C 11,7 C 65 % 0 lf 995,1 hPa 0,0 l/m 0 min 0 min 231 W/m 31,5 km/h (5 Bft) 100,00 %
15.03.2018 12:52 10,9 C 12,2 C 11,7 C 65 % 0 lf 995,1 hPa 0,0 l/m 0 min 0 min 232 W/m 29,3 km/h (5 Bft) 100,00 %
15.03.2018 12:54 11,0 C 12,2 C 12,2 C 65 % 0 lf 995,2 hPa 0,0 l/m 0 min 0 min 238 W/m 18,0 km/h (3 Bft) 91,49 %
15.03.2018 12:56 11,1 C 12,2 C 12,2 C 65 % 0 lf 995,2 hPa 0,0 l/m 0 min 0 min 245 W/m 24,8 km/h (4 Bft) 97,87 %
15.03.2018 12:58 11,1 C 12,2 C 12,2 C 64 % 0 lf 995,2 hPa 0,0 l/m 0 min 0 min 248 W/m 31,5 km/h (5 Bft) 95,74 %
15.03.2018 13:00 11,1 C 12,2 C 12,2 C 64 % 0 lf 995,2 hPa 0,0 l/m 0 min 0 min 241 W/m 36,0 km/h (5 Bft) 95,74 %
15.03.2018 13:02 11,2 C 12,8 C 12,2 C 65 % 0 lf 995,2 hPa 0,0 l/m 0 min 0 min 223 W/m 22,5 km/h (4 Bft) 97,83 %
15.03.2018 13:04 11,2 C 12,8 C 12,2 C 65 % 0 lf 995,1 hPa 0,0 l/m 0 min 0 min 209 W/m 24,8 km/h (4 Bft) 97,87 %
15.03.2018 13:06 11,3 C 12,2 C 12,2 C 65 % 0 lf 995,1 hPa 0,0 l/m 0 min 0 min 198 W/m 24,8 km/h (4 Bft) 95,74 %
15.03.2018 13:08 11,3 C 12,2 C 11,7 C 64 % 0 lf 995,0 hPa 0,0 l/m 0 min 0 min 193 W/m 31,5 km/h (5 Bft) 97,87 %
15.03.2018 13:10 11,3 C 11,7 C 11,7 C 64 % 0 lf 995,1 hPa 0,0 l/m 0 min 0 min 192 W/m 36,0 km/h (5 Bft) 95,74 %
15.03.2018 13:12 11,3 C 12,2 C 11,7 C 64 % 0 lf 995,1 hPa 0,0 l/m 0 min 0 min 195 W/m 24,8 km/h (4 Bft) 91,49 %
15.03.2018 13:14 11,3 C 12,2 C 11,7 C 64 % 0 lf 995,1 hPa 0,0 l/m 0 min 0 min 204 W/m 22,5 km/h (4 Bft) 95,65 %
15.03.2018 13:16 11,3 C 12,2 C 11,7 C 65 % 0 lf 995,0 hPa 0,0 l/m 0 min 0 min 211 W/m 24,8 km/h (4 Bft) 91,49 %
15.03.2018 13:18 11,3 C 12,2 C 11,7 C 65 % 0 lf 995,0 hPa 0,0 l/m 0 min 0 min 225 W/m 27,0 km/h (4 Bft) 95,74 %
15.03.2018 13:20 11,3 C 12,2 C 12,2 C 65 % 0 lf 994,9 hPa 0,0 l/m 0 min 0 min 245 W/m 36,0 km/h (5 Bft) 95,74 %
15.03.2018 13:22 11,3 C 12,2 C 12,2 C 65 % 0 lf 994,9 hPa 0,0 l/m 0 min 0 min 259 W/m 31,5 km/h (5 Bft) 97,87 %
15.03.2018 13:24 11,3 C 12,2 C 12,2 C 65 % 0 lf 994,9 hPa 0,0 l/m 0 min 0 min 263 W/m 24,8 km/h (4 Bft) 93,62 %
15.03.2018 13:26 11,4 C 12,8 C 12,2 C 65 % 0 lf 994,9 hPa 0,0 l/m 0 min 0 min 259 W/m 27,0 km/h (4 Bft) 95,65 %
15.03.2018 13:28 11,4 C 12,2 C 12,2 C 65 % 0 lf 994,9 hPa 0,0 l/m 0 min 0 min 246 W/m 29,3 km/h (5 Bft) 97,87 %
15.03.2018 13:30 11,4 C 12,2 C 12,2 C 65 % 0 lf 994,9 hPa 0,0 l/m 0 min 0 min 228 W/m 29,3 km/h (5 Bft) 97,87 %
15.03.2018 13:32 11,4 C 12,2 C 12,2 C 65 % 0 lf 994,9 hPa 0,0 l/m 0 min 0 min 212 W/m 24,8 km/h (4 Bft) 89,36 %
15.03.2018 13:34 11,4 C 11,7 C 12,2 C 65 % 0 lf 994,9 hPa 0,0 l/m 0 min 0 min 206 W/m 22,5 km/h (4 Bft) 89,36 %
15.03.2018 13:36 11,4 C 11,7 C 12,2 C 65 % 0 lf 994,9 hPa 0,0 l/m 0 min 0 min 200 W/m 20,3 km/h (4 Bft) 95,74 %
15.03.2018 13:38 11,4 C 12,2 C 12,2 C 65 % 0 lf 994,9 hPa 0,0 l/m 0 min 0 min 203 W/m 22,5 km/h (4 Bft) 93,48 %
15.03.2018 13:40 11,4 C 12,2 C 12,2 C 65 % 0 lf 994,9 hPa 0,0 l/m 0 min 0 min 213 W/m 22,5 km/h (4 Bft) 93,62 %
15.03.2018 13:42 11,4 C 12,2 C 12,2 C 65 % 0 lf 994,9 hPa 0,0 l/m 0 min 0 min 221 W/m 24,8 km/h (4 Bft) 91,49 %
15.03.2018 13:44 11,4 C 12,2 C 12,2 C 65 % 0 lf 994,9 hPa 0,0 l/m 0 min 0 min 221 W/m 20,3 km/h (4 Bft) 93,62 %
15.03.2018 13:46 11,4 C 12,2 C 12,2 C 65 % 0 lf 994,8 hPa 0,0 l/m 0 min 0 min 215 W/m 20,3 km/h (4 Bft) 91,49 %
15.03.2018 13:48 11,4 C 12,2 C 12,2 C 65 % 0 lf 994,7 hPa 0,0 l/m 0 min 0 min 207 W/m 15,8 km/h (3 Bft) 93,62 %
15.03.2018 13:50 11,4 C 12,2 C 12,2 C 65 % 0 lf 994,7 hPa 0,0 l/m 0 min 0 min 202 W/m 20,3 km/h (4 Bft) 93,48 %
15.03.2018 13:52 11,4 C 12,2 C 12,2 C 65 % 0 lf 994,7 hPa 0,0 l/m 0 min 0 min 198 W/m 31,5 km/h (5 Bft) 91,49 %
15.03.2018 13:54 11,4 C 12,2 C 12,2 C 65 % 0 lf 994,7 hPa 0,0 l/m 0 min 0 min 190 W/m 22,5 km/h (4 Bft) 87,23 %
15.03.2018 13:56 11,5 C 12,2 C 12,2 C 65 % 0 lf 994,7 hPa 0,0 l/m 0 min 0 min 180 W/m 22,5 km/h (4 Bft) 93,62 %
15.03.2018 13:58 11,5 C 12,2 C 12,2 C 65 % 0 lf 994,7 hPa 0,0 l/m 0 min 0 min 169 W/m 24,8 km/h (4 Bft) 93,62 %
15.03.2018 14:00 11,5 C 12,2 C 11,7 C 65 % 0 lf 994,6 hPa 0,0 l/m 0 min 0 min 158 W/m 22,5 km/h (4 Bft) 91,49 %
15.03.2018 14:02 11,5 C 12,2 C 11,7 C 64 % 0 lf 994,7 hPa 0,0 l/m 0 min 0 min 151 W/m 13,5 km/h (3 Bft) 93,48 %
15.03.2018 14:04 11,5 C 12,2 C 11,7 C 65 % 0 lf 994,7 hPa 0,0 l/m 0 min 0 min 148 W/m 24,8 km/h (4 Bft) 93,62 %
15.03.2018 14:06 11,5 C 12,2 C 11,7 C 64 % 0 lf 994,7 hPa 0,0 l/m 0 min 0 min 148 W/m 29,3 km/h (5 Bft) 93,62 %
15.03.2018 14:08 11,5 C 12,2 C 11,7 C 63 % 0 lf 994,6 hPa 0,0 l/m 0 min 0 min 149 W/m 36,0 km/h (5 Bft) 93,62 %
15.03.2018 14:10 11,5 C 11,7 C 11,7 C 63 % 0 lf 994,6 hPa 0,0 l/m 0 min 0 min 151 W/m 22,5 km/h (4 Bft) 91,49 %
15.03.2018 14:12 11,5 C 11,7 C 11,7 C 64 % 0 lf 994,6 hPa 0,0 l/m 0 min 0 min 155 W/m 20,3 km/h (4 Bft) 93,62 %
15.03.2018 14:14 11,5 C 12,2 C 11,7 C 64 % 0 lf 994,6 hPa 0,0 l/m 0 min 0 min 160 W/m 20,3 km/h (4 Bft) 93,48 %
15.03.2018 14:16 11,5 C 12,2 C 11,7 C 64 % 0 lf 994,6 hPa 0,0 l/m 0 min 0 min 159 W/m 27,0 km/h (4 Bft) 93,62 %
15.03.2018 14:18 11,5 C 12,2 C 11,7 C 64 % 0 lf 994,6 hPa 0,0 l/m 0 min 0 min 156 W/m 22,5 km/h (4 Bft) 95,74 %
15.03.2018 14:20 11,5 C 12,2 C 11,7 C 64 % 0 lf 994,5 hPa 0,0 l/m 0 min 0 min 155 W/m 15,8 km/h (3 Bft) 95,74 %
15.03.2018 14:22 11,5 C 12,2 C 11,7 C 64 % 0 lf 994,5 hPa 0,0 l/m 0 min 0 min 153 W/m 22,5 km/h (4 Bft) 93,62 %
15.03.2018 14:24 11,5 C 12,2 C 11,7 C 64 % 0 lf 994,5 hPa 0,0 l/m 0 min 0 min 149 W/m 22,5 km/h (4 Bft) 91,30 %
15.03.2018 14:26 11,5 C 12,2 C 11,7 C 63 % 0 lf 994,5 hPa 0,0 l/m 0 min 0 min 145 W/m 22,5 km/h (4 Bft) 89,36 %
15.03.2018 14:28 11,5 C 12,2 C 11,7 C 63 % 0 lf 994,4 hPa 0,0 l/m 0 min 0 min 140 W/m 24,8 km/h (4 Bft) 93,62 %
15.03.2018 14:30 11,6 C 12,2 C 11,7 C 64 % 0 lf 994,3 hPa 0,0 l/m 0 min 0 min 140 W/m 11,3 km/h (2 Bft) 95,74 %
15.03.2018 14:32 11,6 C 12,2 C 11,7 C 64 % 0 lf 994,3 hPa 0,0 l/m 0 min 0 min 141 W/m 22,5 km/h (4 Bft) 97,87 %
15.03.2018 14:34 11,6 C 12,2 C 11,7 C 63 % 0 lf 994,3 hPa 0,0 l/m 0 min 0 min 142 W/m 20,3 km/h (4 Bft) 95,74 %
15.03.2018 14:36 11,6 C 12,2 C 11,7 C 63 % 0 lf 994,4 hPa 0,0 l/m 0 min 0 min 140 W/m 15,8 km/h (3 Bft) 93,48 %
15.03.2018 14:38 11,6 C 12,2 C 11,7 C 63 % 0 lf 994,4 hPa 0,0 l/m 0 min 0 min 140 W/m 22,5 km/h (4 Bft) 100,00 %
15.03.2018 14:40 11,6 C 12,2 C 11,7 C 63 % 0 lf 994,4 hPa 0,0 l/m 0 min 0 min 143 W/m 27,0 km/h (4 Bft) 100,00 %
15.03.2018 14:42 11,6 C 12,2 C 11,7 C 63 % 0 lf 994,4 hPa 0,0 l/m 0 min 0 min 146 W/m 15,8 km/h (3 Bft) 100,00 %
15.03.2018 14:44 11,6 C 12,2 C 11,7 C 63 % 0 lf 994,3 hPa 0,0 l/m 0 min 0 min 148 W/m 22,5 km/h (4 Bft) 93,62 %
15.03.2018 14:46 11,6 C 12,2 C 11,7 C 63 % 0 lf 994,3 hPa 0,0 l/m 0 min 0 min 148 W/m 24,8 km/h (4 Bft) 100,00 %
15.03.2018 14:48 11,6 C 12,2 C 11,7 C 63 % 0 lf 994,4 hPa 0,0 l/m 0 min 0 min 149 W/m 20,3 km/h (4 Bft) 100,00 %
15.03.2018 14:50 11,6 C 11,7 C 11,1 C 63 % 0 lf 994,4 hPa 0,0 l/m 0 min 0 min 152 W/m 20,3 km/h (4 Bft) 100,00 %
15.03.2018 14:52 11,6 C 12,2 C 11,1 C 63 % 0 lf 994,4 hPa 0,0 l/m 0 min 0 min 156 W/m 18,0 km/h (3 Bft) 93,62 %
15.03.2018 14:54 11,6 C 12,2 C 11,1 C 63 % 0 lf 994,5 hPa 0,0 l/m 0 min 0 min 160 W/m 20,3 km/h (4 Bft) 100,00 %
15.03.2018 14:56 11,6 C 12,2 C 11,7 C 63 % 0 lf 994,4 hPa 0,0 l/m 0 min 0 min 164 W/m 18,0 km/h (3 Bft) 100,00 %
15.03.2018 14:58 11,6 C 12,2 C 11,7 C 63 % 0 lf 994,5 hPa 0,0 l/m 0 min 0 min 169 W/m 24,8 km/h (4 Bft) 100,00 %
15.03.2018 15:00 11,6 C 12,2 C 11,7 C 63 % 0 lf 994,5 hPa 0,0 l/m 0 min 0 min 176 W/m 27,0 km/h (4 Bft) 100,00 %
15.03.2018 15:02 11,6 C 12,2 C 11,7 C 63 % 0 lf 994,5 hPa 0,0 l/m 0 min 0 min 181 W/m 18,0 km/h (3 Bft) 100,00 %
15.03.2018 15:04 11,6 C 12,2 C 11,7 C 63 % 0 lf 994,6 hPa 0,0 l/m 0 min 0 min 181 W/m 24,8 km/h (4 Bft) 100,00 %
15.03.2018 15:06 11,6 C 12,2 C 11,7 C 63 % 0 lf 994,6 hPa 0,0 l/m 0 min 0 min 181 W/m 13,5 km/h (3 Bft) 100,00 %
15.03.2018 15:08 11,6 C 12,2 C 11,7 C 63 % 0 lf 994,6 hPa 0,0 l/m 0 min 0 min 181 W/m 20,3 km/h (4 Bft) 97,87 %
15.03.2018 15:10 11,6 C 12,2 C 11,7 C 63 % 0 lf 994,5 hPa 0,0 l/m 0 min 0 min 179 W/m 18,0 km/h (3 Bft) 100,00 %
15.03.2018 15:12 11,6 C 12,2 C 12,2 C 63 % 0 lf 994,4 hPa 0,0 l/m 0 min 0 min 176 W/m 24,8 km/h (4 Bft) 97,83 %
15.03.2018 15:14 11,6 C 12,2 C 12,2 C 63 % 0 lf 994,3 hPa 0,0 l/m 0 min 0 min 170 W/m 20,3 km/h (4 Bft) 97,87 %
15.03.2018 15:16 11,6 C 12,2 C 12,2 C 63 % 0 lf 994,3 hPa 0,0 l/m 0 min 0 min 162 W/m 11,3 km/h (2 Bft) 97,87 %
15.03.2018 15:18 11,6 C 12,2 C 12,2 C 63 % 0 lf 994,3 hPa 0,0 l/m 0 min 0 min 156 W/m 13,5 km/h (3 Bft) 100,00 %
15.03.2018 15:20 11,7 C 12,2 C 12,2 C 64 % 0 lf 994,3 hPa 0,0 l/m 0 min 0 min 151 W/m 9,0 km/h (2 Bft) 97,87 %
15.03.2018 15:22 11,7 C 12,2 C 12,2 C 64 % 0 lf 994,3 hPa 0,0 l/m 0 min 0 min 145 W/m 11,3 km/h (2 Bft) 100,00 %
15.03.2018 15:24 11,7 C 12,2 C 12,2 C 63 % 0 lf 994,3 hPa 0,0 l/m 0 min 0 min 138 W/m 11,3 km/h (2 Bft) 100,00 %
15.03.2018 15:26 11,7 C 12,2 C 12,2 C 63 % 0 lf 994,3 hPa 0,0 l/m 0 min 0 min 130 W/m 22,5 km/h (4 Bft) 100,00 %
15.03.2018 15:28 11,7 C 12,2 C 12,2 C 63 % 0 lf 994,2 hPa 0,0 l/m 0 min 0 min 122 W/m 18,0 km/h (3 Bft) 100,00 %
15.03.2018 15:30 11,7 C 12,2 C 11,7 C 63 % 0 lf 994,2 hPa 0,0 l/m 0 min 0 min 115 W/m 13,5 km/h (3 Bft) 97,87 %
15.03.2018 15:32 11,7 C 12,2 C 11,7 C 63 % 0 lf 994,1 hPa 0,0 l/m 0 min 0 min 109 W/m 15,8 km/h (3 Bft) 95,74 %
15.03.2018 15:34 11,7 C 12,2 C 11,7 C 63 % 0 lf 994,1 hPa 0,0 l/m 0 min 0 min 104 W/m 11,3 km/h (2 Bft) 100,00 %
15.03.2018 15:36 11,7 C 12,2 C 11,7 C 63 % 0 lf 994,2 hPa 0,0 l/m 0 min 0 min 100 W/m 20,3 km/h (4 Bft) 97,87 %
15.03.2018 15:38 11,8 C 12,2 C 11,1 C 63 % 0 lf 994,1 hPa 0,0 l/m 0 min 0 min 98 W/m 15,8 km/h (3 Bft) 97,87 %
15.03.2018 15:40 11,8 C 11,7 C 11,1 C 63 % 0 lf 994,1 hPa 0,0 l/m 0 min 0 min 97 W/m 15,8 km/h (3 Bft) 95,65 %
15.03.2018 15:42 11,8 C 12,2 C 11,1 C 63 % 0 lf 994,1 hPa 0,0 l/m 0 min 0 min 97 W/m 13,5 km/h (3 Bft) 95,74 %
15.03.2018 15:44 11,8 C 11,7 C 11,1 C 63 % 0 lf 994,1 hPa 0,0 l/m 0 min 0 min 98 W/m 15,8 km/h (3 Bft) 95,74 %
15.03.2018 15:46 11,8 C 12,2 C 11,1 C 63 % 0 lf 994,1 hPa 0,0 l/m 0 min 0 min 97 W/m 18,0 km/h (3 Bft) 95,74 %
15.03.2018 15:48 11,8 C 12,2 C 11,1 C 63 % 0 lf 994,2 hPa 0,0 l/m 0 min 0 min 92 W/m 15,8 km/h (3 Bft) 95,74 %
15.03.2018 15:50 11,8 C 11,7 C 11,1 C 64 % 0 lf 994,2 hPa 0,0 l/m 0 min 0 min 90 W/m 15,8 km/h (3 Bft) 96,55 %
15.03.2018 15:52 11,8 C 11,7 C 11,1 C 64 % 0 lf 994,2 hPa 0,0 l/m 0 min 0 min 90 W/m 18,0 km/h (3 Bft) 91,43 %
15.03.2018 15:54 11,8 C 11,7 C 11,1 C 64 % 0 lf 994,2 hPa 0,0 l/m 0 min 0 min 95 W/m 6,8 km/h (2 Bft) 95,74 %
15.03.2018 15:56 11,7 C 11,7 C 11,1 C 64 % 0 lf 994,3 hPa 0,0 l/m 0 min 0 min 104 W/m 11,3 km/h (2 Bft) 93,62 %
15.03.2018 15:58 11,7 C 11,7 C 11,1 C 64 % 0 lf 994,3 hPa 0,0 l/m 0 min 0 min 108 W/m 11,3 km/h (2 Bft) 91,49 %
15.03.2018 16:00 11,7 C 12,2 C 11,1 C 64 % 0 lf 994,2 hPa 0,0 l/m 0 min 0 min 105 W/m 9,0 km/h (2 Bft) 95,74 %
15.03.2018 16:02 11,7 C 12,2 C 11,1 C 64 % 0 lf 994,2 hPa 0,0 l/m 0 min 0 min 99 W/m 9,0 km/h (2 Bft) 95,65 %
15.03.2018 16:04 11,7 C 11,7 C 11,1 C 64 % 0 lf 994,3 hPa 0,0 l/m 0 min 0 min 93 W/m 9,0 km/h (2 Bft) 95,74 %
15.03.2018 16:06 11,7 C 11,7 C 11,1 C 65 % 0 lf 994,3 hPa 0,0 l/m 0 min 0 min 86 W/m 6,8 km/h (2 Bft) 95,74 %
15.03.2018 16:08 11,7 C 11,7 C 11,1 C 65 % 0 lf 994,2 hPa 0,0 l/m 0 min 0 min 78 W/m 9,0 km/h (2 Bft) 95,74 %
15.03.2018 16:10 11,7 C 11,7 C 11,1 C 65 % 0 lf 994,3 hPa 0,0 l/m 0 min 0 min 70 W/m 9,0 km/h (2 Bft) 95,74 %
15.03.2018 16:12 11,7 C 11,7 C 10,6 C 65 % 0 lf 994,3 hPa 0,0 l/m 0 min 0 min 63 W/m 11,3 km/h (2 Bft) 95,74 %
15.03.2018 16:14 11,7 C 11,7 C 10,6 C 65 % 0 lf 994,3 hPa 0,0 l/m 0 min 0 min 58 W/m 9,0 km/h (2 Bft) 95,65 %
15.03.2018 16:16 11,7 C 11,7 C 10,6 C 65 % 0 lf 994,3 hPa 0,0 l/m 0 min 0 min 55 W/m 11,3 km/h (2 Bft) 95,74 %
15.03.2018 16:18 11,7 C 11,7 C 10,6 C 65 % 0 lf 994,2 hPa 0,0 l/m 0 min 0 min 54 W/m 6,8 km/h (2 Bft) 97,87 %
15.03.2018 16:20 11,7 C 11,7 C 10,0 C 66 % 0 lf 994,3 hPa 0,0 l/m 0 min 0 min 52 W/m 9,0 km/h (2 Bft) 96,61 %
15.03.2018 16:22 11,7 C 11,7 C 10,0 C 65 % 0 lf 994,3 hPa 0,0 l/m 0 min 0 min 46 W/m 6,8 km/h (2 Bft) 94,29 %
15.03.2018 16:24 11,7 C 11,1 C 10,0 C 65 % 0 lf 994,4 hPa 0,0 l/m 0 min 0 min 41 W/m 6,8 km/h (2 Bft) 100,00 %
15.03.2018 16:26 11,7 C 11,1 C 10,0 C 66 % 0 lf 994,4 hPa 0,0 l/m 0 min 0 min 37 W/m 6,8 km/h (2 Bft) 100,00 %
15.03.2018 16:28 11,6 C 11,1 C 10,0 C 66 % 0 lf 994,5 hPa 0,0 l/m 0 min 0 min 35 W/m 6,8 km/h (2 Bft) 95,74 %
15.03.2018 16:30 11,6 C 11,1 C 10,0 C 66 % 0 lf 994,5 hPa 0,0 l/m 0 min 0 min 35 W/m 6,8 km/h (2 Bft) 97,87 %
15.03.2018 16:32 11,6 C 11,1 C 9,4 C 66 % 0 lf 994,4 hPa 0,0 l/m 0 min 0 min 35 W/m 6,8 km/h (2 Bft) 95,74 %
15.03.2018 16:34 11,6 C 11,1 C 9,4 C 66 % 0 lf 994,4 hPa 0,0 l/m 0 min 0 min 35 W/m 4,5 km/h (1 Bft) 100,00 %
15.03.2018 16:36 11,6 C 11,1 C 9,4 C 66 % 0 lf 994,3 hPa 0,0 l/m 0 min 0 min 35 W/m 4,5 km/h (1 Bft) 95,65 %
15.03.2018 16:38 11,6 C 11,1 C 9,4 C 66 % 0 lf 994,2 hPa 0,0 l/m 0 min 0 min 39 W/m 2,3 km/h (1 Bft) 97,87 %
15.03.2018 16:40 11,6 C 11,1 C 9,4 C 66 % 0 lf 994,3 hPa 0,0 l/m 0 min 0 min 42 W/m 6,8 km/h (2 Bft) 97,87 %
15.03.2018 16:42 11,5 C 11,1 C 9,4 C 66 % 0 lf 994,2 hPa 0,0 l/m 0 min 0 min 47 W/m 9,0 km/h (2 Bft) 95,74 %
15.03.2018 16:44 11,5 C 11,1 C 9,4 C 66 % 0 lf 994,3 hPa 0,0 l/m 0 min 0 min 48 W/m 11,3 km/h (2 Bft) 95,74 %
15.03.2018 16:46 11,5 C 11,1 C 9,4 C 66 % 0 lf 994,3 hPa 0,0 l/m 0 min 0 min 50 W/m 18,0 km/h (3 Bft) 97,87 %
15.03.2018 16:48 11,4 C 11,1 C 9,4 C 65 % 0 lf 994,4 hPa 0,0 l/m 0 min 0 min 51 W/m 15,8 km/h (3 Bft) 97,87 %
15.03.2018 16:50 11,4 C 11,1 C 10,0 C 65 % 0 lf 994,3 hPa 0,0 l/m 0 min 0 min 51 W/m 20,3 km/h (4 Bft) 96,55 %
15.03.2018 16:52 11,4 C 11,1 C 9,4 C 65 % 0 lf 994,2 hPa 0,0 l/m 0 min 0 min 51 W/m 15,8 km/h (3 Bft) 94,29 %
15.03.2018 16:54 11,4 C 11,1 C 10,0 C 65 % 0 lf 994,3 hPa 0,0 l/m 0 min 0 min 52 W/m 15,8 km/h (3 Bft) 97,87 %
15.03.2018 16:56 11,4 C 11,1 C 10,0 C 65 % 0 lf 994,4 hPa 0,0 l/m 0 min 0 min 53 W/m 20,3 km/h (4 Bft) 95,74 %
15.03.2018 16:58 11,3 C 11,1 C 10,0 C 64 % 0 lf 994,3 hPa 0,0 l/m 0 min 0 min 53 W/m 18,0 km/h (3 Bft) 97,87 %
15.03.2018 17:00 11,3 C 11,1 C 10,0 C 64 % 0 lf 994,2 hPa 0,0 l/m 0 min 0 min 52 W/m 22,5 km/h (4 Bft) 97,83 %
15.03.2018 17:02 11,3 C 11,1 C 10,0 C 63 % 0 lf 994,3 hPa 0,0 l/m 0 min 0 min 50 W/m 15,8 km/h (3 Bft) 95,74 %
15.03.2018 17:04 11,3 C 11,1 C 10,0 C 63 % 0 lf 994,3 hPa 0,0 l/m 0 min 0 min 48 W/m 27,0 km/h (4 Bft) 97,87 %
15.03.2018 17:06 11,3 C 11,7 C 10,0 C 62 % 0 lf 994,3 hPa 0,0 l/m 0 min 0 min 47 W/m 20,3 km/h (4 Bft) 97,87 %
15.03.2018 17:08 11,3 C 11,1 C 10,0 C 62 % 0 lf 994,3 hPa 0,0 l/m 0 min 0 min 47 W/m 20,3 km/h (4 Bft) 97,87 %
15.03.2018 17:10 11,3 C 11,1 C 10,0 C 62 % 0 lf 994,3 hPa 0,0 l/m 0 min 0 min 45 W/m 18,0 km/h (3 Bft) 95,74 %
15.03.2018 17:12 11,3 C 11,1 C 10,0 C 62 % 0 lf 994,2 hPa 0,0 l/m 0 min 0 min 44 W/m 11,3 km/h (2 Bft) 95,65 %
15.03.2018 17:14 11,3 C 11,1 C 10,0 C 62 % 0 lf 994,2 hPa 0,0 l/m 0 min 0 min 41 W/m 15,8 km/h (3 Bft) 93,62 %
15.03.2018 17:16 11,3 C 11,1 C 10,0 C 62 % 0 lf 994,3 hPa 0,0 l/m 0 min 0 min 40 W/m 18,0 km/h (3 Bft) 95,74 %
15.03.2018 17:18 11,3 C 11,1 C 9,4 C 63 % 0 lf 994,4 hPa 0,0 l/m 0 min 0 min 37 W/m 20,3 km/h (4 Bft) 95,74 %
15.03.2018 17:20 11,3 C 11,1 C 9,4 C 62 % 0 lf 994,4 hPa 0,0 l/m 0 min 0 min 34 W/m 20,3 km/h (4 Bft) 96,55 %
15.03.2018 17:22 11,3 C 11,1 C 9,4 C 62 % 0 lf 994,5 hPa 0,0 l/m 0 min 0 min 33 W/m 22,5 km/h (4 Bft) 94,44 %
15.03.2018 17:24 11,3 C 11,1 C 9,4 C 62 % 0 lf 994,4 hPa 0,0 l/m 0 min 0 min 33 W/m 20,3 km/h (4 Bft) 95,65 %
15.03.2018 17:26 11,3 C 11,1 C 9,4 C 62 % 0 lf 994,5 hPa 0,0 l/m 0 min 0 min 33 W/m 20,3 km/h (4 Bft) 95,74 %
15.03.2018 17:28 11,3 C 11,1 C 9,4 C 62 % 0 lf 994,6 hPa 0,0 l/m 0 min 0 min 32 W/m 15,8 km/h (3 Bft) 93,62 %
15.03.2018 17:30 11,3 C 11,1 C 9,4 C 62 % 0 lf 994,6 hPa 0,0 l/m 0 min 0 min 31 W/m 15,8 km/h (3 Bft) 95,74 %
15.03.2018 17:32 11,2 C 11,1 C 9,4 C 62 % 0 lf 994,6 hPa 0,0 l/m 0 min 0 min 28 W/m 11,3 km/h (2 Bft) 93,62 %
15.03.2018 17:34 11,2 C 11,1 C 9,4 C 62 % 0 lf 994,7 hPa 0,0 l/m 0 min 0 min 27 W/m 18,0 km/h (3 Bft) 91,49 %
15.03.2018 17:36 11,2 C 11,1 C 9,4 C 62 % 0 lf 994,6 hPa 0,0 l/m 0 min 0 min 26 W/m 15,8 km/h (3 Bft) 95,65 %
15.03.2018 17:38 11,2 C 11,1 C 9,4 C 62 % 0 lf 994,6 hPa 0,0 l/m 0 min 0 min 25 W/m 13,5 km/h (3 Bft) 97,87 %
15.03.2018 17:40 11,2 C 10,6 C 8,9 C 63 % 0 lf 994,7 hPa 0,0 l/m 0 min 0 min 23 W/m 11,3 km/h (2 Bft) 95,74 %
15.03.2018 17:42 11,2 C 10,6 C 8,9 C 63 % 0 lf 994,7 hPa 0,0 l/m 0 min 0 min 22 W/m 11,3 km/h (2 Bft) 93,62 %
15.03.2018 17:44 11,2 C 10,6 C 8,9 C 63 % 0 lf 994,7 hPa 0,0 l/m 0 min 0 min 21 W/m 15,8 km/h (3 Bft) 95,74 %
15.03.2018 17:46 11,2 C 10,6 C 8,9 C 63 % 0 lf 994,6 hPa 0,0 l/m 0 min 0 min 19 W/m 15,8 km/h (3 Bft) 93,62 %
15.03.2018 17:48 11,1 C 10,6 C 8,9 C 63 % 0 lf 994,7 hPa 0,0 l/m 0 min 0 min 19 W/m 18,0 km/h (3 Bft) 93,48 %
15.03.2018 17:50 11,1 C 10,6 C 8,9 C 63 % 0 lf 994,7 hPa 0,0 l/m 0 min 0 min 19 W/m 15,8 km/h (3 Bft) 93,22 %
15.03.2018 17:52 11,1 C 10,6 C 8,9 C 63 % 0 lf 994,8 hPa 0,0 l/m 0 min 0 min 18 W/m 15,8 km/h (3 Bft) 94,29 %
15.03.2018 17:54 11,1 C 10,6 C 8,9 C 63 % 0 lf 994,8 hPa 0,0 l/m 0 min 0 min 16 W/m 11,3 km/h (2 Bft) 93,62 %
15.03.2018 17:56 11,1 C 10,6 C 8,9 C 64 % 0 lf 994,8 hPa 0,0 l/m 0 min 0 min 15 W/m 13,5 km/h (3 Bft) 93,62 %
15.03.2018 17:58 11,0 C 10,6 C 8,9 C 64 % 0 lf 994,8 hPa 0,0 l/m 0 min 0 min 14 W/m 9,0 km/h (2 Bft) 95,74 %
15.03.2018 18:00 11,0 C 10,6 C 8,9 C 64 % 0 lf 994,8 hPa 0,0 l/m 0 min 0 min 13 W/m 11,3 km/h (2 Bft) 95,65 %
15.03.2018 18:02 11,0 C 10,6 C 8,3 C 64 % 0 lf 994,8 hPa 0,0 l/m 0 min 0 min 12 W/m 9,0 km/h (2 Bft) 95,74 %
15.03.2018 18:04 10,9 C 10,0 C 8,3 C 64 % 0 lf 994,8 hPa 0,0 l/m 0 min 0 min 11 W/m 9,0 km/h (2 Bft) 95,74 %
15.03.2018 18:08 10,9 C 10,0 C 7,8 C 65 % 0 lf 994,8 hPa 0,0 l/m 0 min 0 min 9 W/m 11,3 km/h (2 Bft) 97,09 %
15.03.2018 18:10 10,9 C 10,0 C 7,8 C 65 % 0 lf 994,9 hPa 0,0 l/m 0 min 0 min 7 W/m 9,0 km/h (2 Bft) 95,74 %
15.03.2018 18:12 10,9 C 10,0 C 7,8 C 65 % 0 lf 994,9 hPa 0,0 l/m 0 min 0 min 7 W/m 4,5 km/h (1 Bft) 95,74 %
15.03.2018 18:14 10,8 C 10,0 C 8,3 C 65 % 0 lf 994,8 hPa 0,0 l/m 0 min 0 min 7 W/m 9,0 km/h (2 Bft) 97,83 %
15.03.2018 18:16 10,8 C 10,6 C 8,3 C 65 % 0 lf 994,8 hPa 0,0 l/m 0 min 0 min 7 W/m 9,0 km/h (2 Bft) 100,00 %
15.03.2018 18:18 10,8 C 10,6 C 8,3 C 65 % 0 lf 994,8 hPa 0,0 l/m 0 min 0 min 6 W/m 9,0 km/h (2 Bft) 100,00 %
15.03.2018 18:20 10,8 C 10,6 C 8,3 C 65 % 0 lf 994,8 hPa 0,0 l/m 0 min 0 min 5 W/m 15,8 km/h (3 Bft) 100,00 %
15.03.2018 18:22 10,7 C 10,6 C 8,3 C 65 % 0 lf 994,8 hPa 0,0 l/m 0 min 0 min 5 W/m 15,8 km/h (3 Bft) 97,87 %
15.03.2018 18:24 10,7 C 10,0 C 8,3 C 66 % 0 lf 994,8 hPa 0,0 l/m 0 min 0 min 5 W/m 11,3 km/h (2 Bft) 97,87 %
15.03.2018 18:26 10,7 C 10,0 C 8,3 C 66 % 0 lf 994,9 hPa 0,0 l/m 0 min 0 min 5 W/m 11,3 km/h (2 Bft) 95,65 %
15.03.2018 18:28 10,7 C 10,0 C 8,3 C 66 % 0 lf 994,8 hPa 0,0 l/m 0 min 0 min 0 W/m 18,0 km/h (3 Bft) 97,87 %
15.03.2018 18:30 10,7 C 10,0 C 8,3 C 66 % 0 lf 994,9 hPa 0,0 l/m 0 min 0 min 0 W/m 20,3 km/h (4 Bft) 91,49 %
15.03.2018 18:32 10,6 C 10,0 C 8,3 C 66 % 0 lf 994,9 hPa 0,0 l/m 0 min 0 min 0 W/m 13,5 km/h (3 Bft) 97,87 %
15.03.2018 18:34 10,6 C 10,0 C 8,3 C 66 % 0 lf 994,8 hPa 0,0 l/m 0 min 0 min 0 W/m 11,3 km/h (2 Bft) 97,87 %
15.03.2018 18:36 10,6 C 10,0 C 8,3 C 66 % 0 lf 994,9 hPa 0,0 l/m 0 min 0 min 0 W/m 11,3 km/h (2 Bft) 95,74 %
15.03.2018 18:38 10,6 C 10,0 C 8,3 C 66 % 0 lf 994,9 hPa 0,0 l/m 0 min 0 min 0 W/m 13,5 km/h (3 Bft) 95,65 %
15.03.2018 18:40 10,6 C 10,0 C 8,3 C 66 % 0 lf 994,8 hPa 0,0 l/m 0 min 0 min 0 W/m 15,8 km/h (3 Bft) 97,87 %
15.03.2018 18:42 10,5 C 10,0 C 8,3 C 66 % 0 lf 994,9 hPa 0,0 l/m 0 min 0 min 0 W/m 13,5 km/h (3 Bft) 97,87 %
15.03.2018 18:44 10,5 C 10,0 C 8,3 C 66 % 0 lf 994,9 hPa 0,0 l/m 0 min 0 min 0 W/m 11,3 km/h (2 Bft) 95,74 %
15.03.2018 18:46 10,5 C 10,0 C 8,3 C 66 % 0 lf 994,9 hPa 0,0 l/m 0 min 0 min 0 W/m 9,0 km/h (2 Bft) 97,87 %
15.03.2018 18:48 10,5 C 10,0 C 8,3 C 66 % 0 lf 994,9 hPa 0,0 l/m 0 min 0 min 0 W/m 9,0 km/h (2 Bft) 93,62 %
15.03.2018 18:50 10,5 C 10,0 C 7,8 C 67 % 0 lf 994,9 hPa 0,0 l/m 0 min 0 min 0 W/m 15,8 km/h (3 Bft) 97,83 %
15.03.2018 18:52 10,4 C 10,0 C 7,8 C 67 % 0 lf 995,0 hPa 0,0 l/m 0 min 2 min 0 W/m 6,8 km/h (2 Bft) 95,74 %
15.03.2018 18:54 10,4 C 10,0 C 7,2 C 67 % 1 lf 995,0 hPa 0,0 l/m 0 min 2 min 0 W/m 11,3 km/h (2 Bft) 97,87 %
15.03.2018 18:56 10,4 C 9,4 C 7,2 C 68 % 0 lf 995,1 hPa 0,0 l/m 0 min 2 min 0 W/m 9,0 km/h (2 Bft) 97,87 %
15.03.2018 18:58 10,4 C 8,9 C 6,7 C 68 % 0 lf 995,1 hPa 0,0 l/m 0 min 2 min 0 W/m 9,0 km/h (2 Bft) 97,87 %
15.03.2018 19:00 10,4 C 8,3 C 6,7 C 70 % 2 lf 995,2 hPa 0,0 l/m 0 min 2 min 0 W/m 11,3 km/h (2 Bft) 97,83 %
15.03.2018 19:02 10,4 C 8,3 C 6,1 C 70 % 4 lf 995,1 hPa 0,0 l/m 0 min 2 min 0 W/m 9,0 km/h (2 Bft) 97,87 %
15.03.2018 19:04 10,3 C 8,3 C 6,1 C 70 % 4 lf 995,1 hPa 0,0 l/m 0 min 2 min 0 W/m 11,3 km/h (2 Bft) 93,62 %
15.03.2018 19:06 10,3 C 8,3 C 6,1 C 71 % 3 lf 995,2 hPa 0,0 l/m 0 min 0 min 0 W/m 11,3 km/h (2 Bft) 95,74 %
15.03.2018 19:08 10,3 C 8,9 C 6,1 C 71 % 1 lf 995,2 hPa 0,0 l/m 0 min 0 min 0 W/m 15,8 km/h (3 Bft) 97,87 %
15.03.2018 19:10 10,2 C 8,9 C 6,1 C 71 % 0 lf 995,3 hPa 0,0 l/m 0 min 0 min 0 W/m 11,3 km/h (2 Bft) 97,87 %
15.03.2018 19:12 10,2 C 9,4 C 6,1 C 72 % 0 lf 995,3 hPa 0,0 l/m 0 min 0 min 0 W/m 13,5 km/h (3 Bft) 95,65 %
15.03.2018 19:14 10,2 C 9,4 C 6,1 C 72 % 0 lf 995,4 hPa 0,0 l/m 0 min 2 min 0 W/m 13,5 km/h (3 Bft) 95,74 %
15.03.2018 19:16 10,2 C 9,4 C 6,7 C 72 % 0 lf 995,4 hPa 0,0 l/m 0 min 0 min 0 W/m 20,3 km/h (4 Bft) 95,74 %
15.03.2018 19:18 10,1 C 9,4 C 6,7 C 72 % 0 lf 995,4 hPa 0,0 l/m 0 min 2 min 0 W/m 13,5 km/h (3 Bft) 97,87 %
15.03.2018 19:20 10,1 C 9,4 C 6,7 C 72 % 0 lf 995,5 hPa 0,0 l/m 0 min 2 min 0 W/m 20,3 km/h (4 Bft) 100,00 %
15.03.2018 19:22 10,1 C 9,4 C 6,7 C 73 % 0 lf 995,5 hPa 0,0 l/m 0 min 2 min 0 W/m 20,3 km/h (4 Bft) 97,87 %
15.03.2018 19:24 10,0 C 9,4 C 6,7 C 73 % 0 lf 995,5 hPa 0,0 l/m 0 min 0 min 0 W/m 18,0 km/h (3 Bft) 97,83 %
15.03.2018 19:26 10,0 C 9,4 C 6,7 C 73 % 0 lf 995,5 hPa 0,0 l/m 0 min 2 min 0 W/m 18,0 km/h (3 Bft) 93,62 %
15.03.2018 19:28 9,9 C 9,4 C 6,7 C 73 % 1 lf 995,6 hPa 0,0 l/m 0 min 2 min 0 W/m 15,8 km/h (3 Bft) 100,00 %
15.03.2018 19:30 9,9 C 8,9 C 6,7 C 74 % 0 lf 995,6 hPa 0,0 l/m 0 min 2 min 0 W/m 13,5 km/h (3 Bft) 97,87 %
15.03.2018 19:32 9,9 C 8,3 C 6,7 C 74 % 3 lf 995,7 hPa 0,0 l/m 0 min 2 min 0 W/m 18,0 km/h (3 Bft) 95,74 %
15.03.2018 19:34 9,9 C 7,8 C 6,1 C 74 % 3 lf 995,7 hPa 0,0 l/m 0 min 2 min 0 W/m 13,5 km/h (3 Bft) 97,87 %
15.03.2018 19:36 9,9 C 7,2 C 6,1 C 75 % 7 lf 995,7 hPa 0,0 l/m 0 min 2 min 0 W/m 15,8 km/h (3 Bft) 93,48 %
15.03.2018 19:38 9,8 C 7,2 C 6,1 C 75 % 4 lf 995,7 hPa 0,0 l/m 0 min 2 min 0 W/m 27,0 km/h (4 Bft) 95,74 %
15.03.2018 19:40 9,8 C 6,7 C 6,1 C 76 % 10 lf 995,8 hPa 0,2 l/m 0 min 2 min 0 W/m 13,5 km/h (3 Bft) 95,74 %
15.03.2018 19:42 9,7 C 6,7 C 5,6 C 77 % 10 lf 995,8 hPa 0,0 l/m 0 min 2 min 0 W/m 24,8 km/h (4 Bft) 93,62 %
15.03.2018 19:44 9,7 C 6,7 C 5,6 C 78 % 7 lf 995,8 hPa 0,0 l/m 0 min 2 min 0 W/m 24,8 km/h (4 Bft) 93,62 %
15.03.2018 19:46 9,6 C 6,7 C 5,6 C 78 % 4 lf 995,8 hPa 0,0 l/m 0 min 2 min 0 W/m 20,3 km/h (4 Bft) 93,62 %
15.03.2018 19:48 9,5 C 6,7 C 5,6 C 79 % 3 lf 995,9 hPa 0,0 l/m 0 min 2 min 0 W/m 24,8 km/h (4 Bft) 93,48 %
15.03.2018 19:50 9,4 C 6,7 C 5,6 C 80 % 3 lf 995,8 hPa 0,0 l/m 0 min 2 min 0 W/m 22,5 km/h (4 Bft) 93,62 %
15.03.2018 19:52 9,3 C 6,7 C 5,6 C 81 % 2 lf 995,9 hPa 0,0 l/m 0 min 2 min 0 W/m 18,0 km/h (3 Bft) 93,62 %
15.03.2018 19:54 9,2 C 6,7 C 5,6 C 81 % 1 lf 995,9 hPa 0,0 l/m 0 min 2 min 0 W/m 15,8 km/h (3 Bft) 95,74 %
15.03.2018 19:56 9,2 C 6,7 C 5,6 C 82 % 1 lf 995,9 hPa 0,0 l/m 0 min 2 min 0 W/m 11,3 km/h (2 Bft) 95,74 %
15.03.2018 19:58 9,1 C 6,7 C 5,6 C 82 % 1 lf 995,9 hPa 0,2 l/m 0 min 2 min 0 W/m 13,5 km/h (3 Bft) 95,74 %
15.03.2018 20:00 9,0 C 6,7 C 5,6 C 83 % 1 lf 995,9 hPa 0,0 l/m 0 min 2 min 0 W/m 20,3 km/h (4 Bft) 95,65 %
15.03.2018 20:02 8,9 C 6,7 C 5,6 C 83 % 2 lf 995,9 hPa 0,0 l/m 0 min 2 min 0 W/m 9,0 km/h (2 Bft) 95,74 %
15.03.2018 20:04 8,8 C 6,7 C 5,6 C 83 % 3 lf 995,9 hPa 0,0 l/m 0 min 2 min 0 W/m 22,5 km/h (4 Bft) 95,74 %
15.03.2018 20:06 8,8 C 6,1 C 5,6 C 84 % 4 lf 995,9 hPa 0,0 l/m 0 min 2 min 0 W/m 15,8 km/h (3 Bft) 97,87 %
15.03.2018 20:08 8,7 C 6,1 C 5,6 C 84 % 3 lf 995,9 hPa 0,0 l/m 0 min 2 min 0 W/m 9,0 km/h (2 Bft) 93,62 %
15.03.2018 20:10 8,7 C 6,1 C 5,6 C 84 % 3 lf 996,0 hPa 0,0 l/m 0 min 2 min 0 W/m 11,3 km/h (2 Bft) 95,74 %
15.03.2018 20:12 8,6 C 6,1 C 5,6 C 85 % 4 lf 996,0 hPa 0,0 l/m 0 min 2 min 0 W/m 9,0 km/h (2 Bft) 97,83 %
15.03.2018 20:14 8,6 C 6,1 C 5,6 C 85 % 7 lf 995,9 hPa 0,0 l/m 0 min 2 min 0 W/m 9,0 km/h (2 Bft) 93,62 %
15.03.2018 20:16 8,5 C 6,1 C 5,6 C 86 % 11 lf 996,0 hPa 0,0 l/m 0 min 2 min 0 W/m 13,5 km/h (3 Bft) 100,00 %
15.03.2018 20:18 8,4 C 6,1 C 5,6 C 86 % 14 lf 996,0 hPa 0,0 l/m 0 min 2 min 0 W/m 11,3 km/h (2 Bft) 100,00 %
15.03.2018 20:20 8,4 C 6,1 C 5,6 C 86 % 14 lf 996,0 hPa 0,0 l/m 0 min 2 min 0 W/m 11,3 km/h (2 Bft) 100,00 %
15.03.2018 20:22 8,4 C 6,1 C 5,6 C 87 % 15 lf 996,0 hPa 0,2 l/m 0 min 2 min 0 W/m 9,0 km/h (2 Bft) 97,87 %
15.03.2018 20:24 8,3 C 6,1 C 5,6 C 87 % 15 lf 996,0 hPa 0,0 l/m 0 min 2 min 0 W/m 9,0 km/h (2 Bft) 100,00 %
15.03.2018 20:26 8,3 C 6,1 C 5,6 C 87 % 15 lf 996,0 hPa 0,0 l/m 0 min 2 min 0 W/m 11,3 km/h (2 Bft) 97,87 %
15.03.2018 20:28 8,3 C 6,1 C 5,6 C 87 % 15 lf 996,0 hPa 0,0 l/m 0 min 2 min 0 W/m 11,3 km/h (2 Bft) 95,74 %
15.03.2018 20:30 8,2 C 6,1 C 5,6 C 88 % 15 lf 996,0 hPa 0,0 l/m 0 min 2 min 0 W/m 11,3 km/h (2 Bft) 97,87 %
15.03.2018 20:32 8,2 C 6,1 C 5,6 C 88 % 15 lf 996,0 hPa 0,0 l/m 0 min 2 min 0 W/m 18,0 km/h (3 Bft) 97,87 %
15.03.2018 20:34 8,1 C 6,1 C 5,6 C 88 % 15 lf 996,0 hPa 0,0 l/m 0 min 2 min 0 W/m 15,8 km/h (3 Bft) 100,00 %
15.03.2018 20:36 8,1 C 6,1 C 5,6 C 88 % 15 lf 996,0 hPa 0,0 l/m 0 min 2 min 0 W/m 18,0 km/h (3 Bft) 100,00 %
15.03.2018 20:38 8,1 C 6,1 C 5,6 C 88 % 15 lf 996,0 hPa 0,0 l/m 0 min 2 min 0 W/m 15,8 km/h (3 Bft) 97,87 %
15.03.2018 20:40 8,0 C 6,1 C 5,6 C 88 % 15 lf 996,0 hPa 0,2 l/m 0 min 2 min 0 W/m 13,5 km/h (3 Bft) 97,87 %
15.03.2018 20:42 7,9 C 6,1 C 5,6 C 89 % 15 lf 996,0 hPa 0,0 l/m 0 min 2 min 0 W/m 15,8 km/h (3 Bft) 97,87 %
15.03.2018 20:44 7,9 C 6,1 C 5,6 C 89 % 15 lf 996,0 hPa 0,0 l/m 0 min 2 min 0 W/m 15,8 km/h (3 Bft) 100,00 %
15.03.2018 20:46 7,9 C 6,1 C 5,6 C 89 % 15 lf 996,0 hPa 0,0 l/m 0 min 2 min 0 W/m 20,3 km/h (4 Bft) 97,83 %
15.03.2018 20:48 7,8 C 6,1 C 5,6 C 89 % 15 lf 996,0 hPa 0,0 l/m 0 min 2 min 0 W/m 20,3 km/h (4 Bft) 100,00 %
15.03.2018 20:50 7,8 C 6,1 C 5,6 C 89 % 15 lf 996,0 hPa 0,0 l/m 0 min 2 min 0 W/m 20,3 km/h (4 Bft) 100,00 %
15.03.2018 20:52 7,8 C 6,1 C 5,6 C 90 % 15 lf 996,0 hPa 0,2 l/m 0 min 2 min 0 W/m 22,5 km/h (4 Bft) 100,00 %
15.03.2018 20:54 7,7 C 6,1 C 5,6 C 90 % 15 lf 995,9 hPa 0,0 l/m 0 min 2 min 0 W/m 20,3 km/h (4 Bft) 97,87 %
15.03.2018 20:56 7,7 C 6,1 C 5,6 C 90 % 15 lf 995,9 hPa 0,0 l/m 0 min 2 min 0 W/m 18,0 km/h (3 Bft) 100,00 %
15.03.2018 20:58 7,7 C 6,1 C 5,6 C 90 % 15 lf 996,0 hPa 0,0 l/m 0 min 2 min 0 W/m 22,5 km/h (4 Bft) 100,00 %
15.03.2018 21:00 7,6 C 6,1 C 5,6 C 90 % 15 lf 996,0 hPa 0,2 l/m 0 min 2 min 0 W/m 20,3 km/h (4 Bft) 100,00 %
15.03.2018 21:02 7,6 C 6,1 C 5,6 C 90 % 15 lf 995,9 hPa 0,0 l/m 0 min 2 min 0 W/m 20,3 km/h (4 Bft) 100,00 %
15.03.2018 21:04 7,6 C 6,1 C 5,6 C 91 % 15 lf 995,9 hPa 0,0 l/m 0 min 2 min 0 W/m 22,5 km/h (4 Bft) 100,00 %
15.03.2018 21:06 7,5 C 6,1 C 5,6 C 91 % 15 lf 995,9 hPa 0,0 l/m 0 min 2 min 0 W/m 18,0 km/h (3 Bft) 100,00 %
15.03.2018 21:08 7,5 C 6,1 C 5,6 C 91 % 15 lf 995,9 hPa 0,0 l/m 0 min 2 min 0 W/m 20,3 km/h (4 Bft) 100,00 %
15.03.2018 21:10 7,5 C 6,1 C 5,6 C 91 % 15 lf 995,9 hPa 0,2 l/m 0 min 2 min 0 W/m 22,5 km/h (4 Bft) 97,83 %
15.03.2018 21:12 7,4 C 6,1 C 5,6 C 91 % 15 lf 995,9 hPa 0,0 l/m 0 min 2 min 0 W/m 29,3 km/h (5 Bft) 95,74 %
15.03.2018 21:14 7,4 C 6,1 C 5,6 C 91 % 15 lf 995,9 hPa 0,0 l/m 0 min 2 min 0 W/m 29,3 km/h (5 Bft) 97,87 %
15.03.2018 21:16 7,4 C 6,1 C 5,6 C 92 % 15 lf 995,9 hPa 0,0 l/m 0 min 2 min 0 W/m 33,8 km/h (5 Bft) 97,87 %
15.03.2018 21:18 7,4 C 6,1 C 5,6 C 92 % 15 lf 995,9 hPa 0,2 l/m 0 min 2 min 0 W/m 22,5 km/h (4 Bft) 95,74 %
15.03.2018 21:20 7,3 C 6,1 C 5,6 C 92 % 15 lf 995,9 hPa 0,0 l/m 0 min 2 min 0 W/m 20,3 km/h (4 Bft) 93,62 %
15.03.2018 21:22 7,3 C 6,1 C 5,0 C 92 % 15 lf 996,0 hPa 0,0 l/m 0 min 2 min 0 W/m 24,8 km/h (4 Bft) 95,65 %
15.03.2018 21:24 7,3 C 6,1 C 5,0 C 92 % 15 lf 996,0 hPa 0,0 l/m 0 min 2 min 0 W/m 22,5 km/h (4 Bft) 93,62 %
15.03.2018 21:26 7,3 C 6,1 C 5,0 C 92 % 15 lf 996,0 hPa 0,0 l/m 0 min 2 min 0 W/m 20,3 km/h (4 Bft) 95,74 %
15.03.2018 21:28 7,3 C 6,1 C 5,0 C 92 % 15 lf 995,9 hPa 0,0 l/m 0 min 2 min 0 W/m 15,8 km/h (3 Bft) 95,74 %
15.03.2018 21:30 7,3 C 6,1 C 5,0 C 92 % 15 lf 996,0 hPa 0,0 l/m 0 min 2 min 0 W/m 20,3 km/h (4 Bft) 93,62 %
15.03.2018 21:32 7,3 C 6,1 C 5,6 C 92 % 15 lf 996,0 hPa 0,0 l/m 0 min 2 min 0 W/m 20,3 km/h (4 Bft) 93,62 %
15.03.2018 21:34 7,2 C 6,1 C 5,0 C 92 % 15 lf 996,0 hPa 0,2 l/m 0 min 2 min 0 W/m 24,8 km/h (4 Bft) 93,48 %
15.03.2018 21:36 7,2 C 6,1 C 5,0 C 92 % 15 lf 996,0 hPa 0,0 l/m 0 min 2 min 0 W/m 22,5 km/h (4 Bft) 93,62 %
15.03.2018 21:38 7,2 C 6,1 C 5,0 C 93 % 15 lf 996,0 hPa 0,0 l/m 0 min 2 min 0 W/m 20,3 km/h (4 Bft) 93,62 %
15.03.2018 21:40 7,2 C 6,1 C 5,0 C 93 % 15 lf 996,0 hPa 0,0 l/m 0 min 2 min 0 W/m 22,5 km/h (4 Bft) 91,49 %
15.03.2018 21:42 7,2 C 6,1 C 5,0 C 93 % 15 lf 996,0 hPa 0,0 l/m 0 min 2 min 0 W/m 20,3 km/h (4 Bft) 93,62 %
15.03.2018 21:44 7,2 C 6,1 C 5,0 C 93 % 15 lf 996,0 hPa 0,2 l/m 0 min 2 min 0 W/m 18,0 km/h (3 Bft) 91,30 %
15.03.2018 21:46 7,2 C 6,1 C 5,0 C 93 % 15 lf 996,1 hPa 0,0 l/m 0 min 2 min 0 W/m 24,8 km/h (4 Bft) 93,62 %
15.03.2018 21:48 7,2 C 6,1 C 5,0 C 93 % 15 lf 996,1 hPa 0,0 l/m 0 min 2 min 0 W/m 20,3 km/h (4 Bft) 93,62 %
15.03.2018 21:50 7,1 C 6,1 C 5,0 C 93 % 15 lf 996,1 hPa 0,0 l/m 0 min 2 min 0 W/m 15,8 km/h (3 Bft) 89,36 %
15.03.2018 21:52 7,1 C 6,1 C 5,0 C 93 % 15 lf 996,1 hPa 0,0 l/m 0 min 2 min 0 W/m 24,8 km/h (4 Bft) 89,36 %
15.03.2018 21:54 7,1 C 6,1 C 5,0 C 93 % 15 lf 996,1 hPa 0,0 l/m 0 min 2 min 0 W/m 18,0 km/h (3 Bft) 95,74 %
15.03.2018 21:56 7,1 C 6,1 C 5,0 C 93 % 15 lf 996,1 hPa 0,0 l/m 0 min 2 min 0 W/m 20,3 km/h (4 Bft) 95,65 %
15.03.2018 21:58 7,1 C 6,1 C 5,0 C 93 % 15 lf 996,1 hPa 0,0 l/m 0 min 2 min 0 W/m 18,0 km/h (3 Bft) 93,62 %
15.03.2018 22:00 7,1 C 6,1 C 5,0 C 93 % 15 lf 996,1 hPa 0,2 l/m 0 min 2 min 0 W/m 18,0 km/h (3 Bft) 93,62 %
15.03.2018 22:02 7,1 C 6,1 C 5,0 C 93 % 15 lf 996,1 hPa 0,0 l/m 0 min 2 min 0 W/m 18,0 km/h (3 Bft) 91,49 %
15.03.2018 22:04 7,1 C 6,1 C 5,0 C 93 % 15 lf 996,1 hPa 0,0 l/m 0 min 2 min 0 W/m 18,0 km/h (3 Bft) 91,49 %
15.03.2018 22:06 7,1 C 6,1 C 5,0 C 93 % 15 lf 996,0 hPa 0,0 l/m 0 min 2 min 0 W/m 15,8 km/h (3 Bft) 91,49 %
15.03.2018 22:08 7,0 C 6,1 C 5,0 C 93 % 15 lf 996,1 hPa 0,0 l/m 0 min 2 min 0 W/m 15,8 km/h (3 Bft) 93,48 %
15.03.2018 22:10 7,0 C 6,1 C 5,0 C 93 % 15 lf 996,1 hPa 0,0 l/m 0 min 2 min 0 W/m 18,0 km/h (3 Bft) 95,74 %
15.03.2018 22:12 7,0 C 6,1 C 5,0 C 93 % 15 lf 996,1 hPa 0,2 l/m 0 min 2 min 0 W/m 15,8 km/h (3 Bft) 93,62 %
15.03.2018 22:14 7,0 C 6,1 C 5,0 C 93 % 15 lf 996,1 hPa 0,0 l/m 0 min 0 min 0 W/m 13,5 km/h (3 Bft) 93,62 %
15.03.2018 22:16 7,0 C 6,1 C 5,0 C 93 % 15 lf 996,1 hPa 0,0 l/m 0 min 2 min 0 W/m 11,3 km/h (2 Bft) 91,49 %
15.03.2018 22:18 7,0 C 6,1 C 5,0 C 93 % 15 lf 996,1 hPa 0,0 l/m 0 min 2 min 0 W/m 13,5 km/h (3 Bft) 95,74 %
15.03.2018 22:20 7,0 C 6,1 C 5,0 C 94 % 15 lf 996,1 hPa 0,0 l/m 0 min 2 min 0 W/m 13,5 km/h (3 Bft) 95,65 %
15.03.2018 22:22 7,0 C 6,1 C 5,0 C 94 % 15 lf 996,1 hPa 0,0 l/m 0 min 2 min 0 W/m 13,5 km/h (3 Bft) 97,87 %
15.03.2018 22:24 6,9 C 6,1 C 5,0 C 94 % 15 lf 996,0 hPa 0,0 l/m 0 min 0 min 0 W/m 9,0 km/h (2 Bft) 97,87 %
15.03.2018 22:26 6,9 C 6,1 C 5,0 C 94 % 15 lf 996,1 hPa 0,0 l/m 0 min 2 min 0 W/m 13,5 km/h (3 Bft) 93,62 %
15.03.2018 22:28 6,9 C 6,1 C 5,0 C 94 % 15 lf 996,1 hPa 0,0 l/m 0 min 0 min 0 W/m 13,5 km/h (3 Bft) 93,62 %
15.03.2018 22:30 6,9 C 6,1 C 5,0 C 94 % 15 lf 996,1 hPa 0,0 l/m 0 min 2 min 0 W/m 13,5 km/h (3 Bft) 95,74 %
15.03.2018 22:32 6,9 C 6,1 C 5,0 C 94 % 15 lf 996,1 hPa 0,2 l/m 0 min 0 min 0 W/m 15,8 km/h (3 Bft) 97,83 %
15.03.2018 22:34 6,9 C 6,1 C 5,0 C 94 % 15 lf 996,1 hPa 0,0 l/m 0 min 0 min 0 W/m 11,3 km/h (2 Bft) 89,36 %
15.03.2018 22:36 6,9 C 6,1 C 5,0 C 94 % 15 lf 996,1 hPa 0,0 l/m 0 min 0 min 0 W/m 11,3 km/h (2 Bft) 95,74 %
15.03.2018 22:38 6,9 C 6,1 C 5,0 C 94 % 15 lf 996,1 hPa 0,0 l/m 0 min 0 min 0 W/m 15,8 km/h (3 Bft) 91,49 %
15.03.2018 22:40 6,9 C 6,1 C 5,0 C 94 % 15 lf 996,1 hPa 0,0 l/m 0 min 0 min 0 W/m 11,3 km/h (2 Bft) 97,87 %
15.03.2018 22:42 6,9 C 6,1 C 5,0 C 94 % 15 lf 996,0 hPa 0,0 l/m 0 min 2 min 0 W/m 11,3 km/h (2 Bft) 93,48 %
15.03.2018 22:44 6,9 C 6,1 C 5,0 C 94 % 15 lf 996,0 hPa 0,0 l/m 0 min 2 min 0 W/m 9,0 km/h (2 Bft) 97,87 %
15.03.2018 22:46 6,9 C 6,1 C 5,0 C 94 % 15 lf 996,0 hPa 0,0 l/m 0 min 2 min 0 W/m 13,5 km/h (3 Bft) 97,87 %
15.03.2018 22:48 6,9 C 6,1 C 5,0 C 94 % 15 lf 996,0 hPa 0,2 l/m 0 min 2 min 0 W/m 15,8 km/h (3 Bft) 95,74 %
15.03.2018 22:50 6,9 C 6,1 C 5,0 C 94 % 15 lf 996,0 hPa 0,0 l/m 0 min 2 min 0 W/m 13,5 km/h (3 Bft) 95,74 %
15.03.2018 22:52 6,9 C 6,1 C 5,0 C 94 % 15 lf 996,1 hPa 0,0 l/m 0 min 2 min 0 W/m 15,8 km/h (3 Bft) 93,62 %
15.03.2018 22:54 6,9 C 6,1 C 5,0 C 94 % 15 lf 996,0 hPa 0,0 l/m 0 min 2 min 0 W/m 11,3 km/h (2 Bft) 100,00 %
15.03.2018 22:56 6,9 C 6,1 C 5,0 C 94 % 15 lf 996,0 hPa 0,0 l/m 0 min 2 min 0 W/m 18,0 km/h (3 Bft) 95,74 %
15.03.2018 22:58 6,8 C 6,1 C 5,0 C 94 % 15 lf 996,0 hPa 0,0 l/m 0 min 2 min 0 W/m 18,0 km/h (3 Bft) 97,87 %
15.03.2018 23:00 6,8 C 6,1 C 5,0 C 94 % 15 lf 996,0 hPa 0,0 l/m 0 min 2 min 0 W/m 11,3 km/h (2 Bft) 97,87 %
15.03.2018 23:02 6,8 C 6,1 C 5,0 C 94 % 15 lf 996,0 hPa 0,0 l/m 0 min 2 min 0 W/m 15,8 km/h (3 Bft) 97,87 %
15.03.2018 23:04 6,8 C 6,1 C 5,0 C 94 % 15 lf 996,0 hPa 0,0 l/m 0 min 2 min 0 W/m 11,3 km/h (2 Bft) 100,00 %
15.03.2018 23:06 6,8 C 6,1 C 5,0 C 94 % 15 lf 996,0 hPa 0,0 l/m 0 min 0 min 0 W/m 11,3 km/h (2 Bft) 100,00 %
15.03.2018 23:08 6,8 C 6,1 C 5,0 C 94 % 15 lf 996,0 hPa 0,0 l/m 0 min 0 min 0 W/m 15,8 km/h (3 Bft) 100,00 %
15.03.2018 23:10 6,8 C 6,1 C 5,0 C 94 % 15 lf 996,0 hPa 0,0 l/m 0 min 0 min 0 W/m 15,8 km/h (3 Bft) 97,87 %
15.03.2018 23:12 6,8 C 6,1 C 5,0 C 94 % 15 lf 996,0 hPa 0,0 l/m 0 min 0 min 0 W/m 6,8 km/h (2 Bft) 97,87 %
15.03.2018 23:14 6,8 C 6,1 C 5,0 C 94 % 15 lf 996,0 hPa 0,2 l/m 0 min 0 min 0 W/m 9,0 km/h (2 Bft) 97,87 %
15.03.2018 23:16 6,8 C 6,1 C 5,0 C 94 % 15 lf 996,0 hPa 0,0 l/m 0 min 0 min 0 W/m 11,3 km/h (2 Bft) 97,87 %
15.03.2018 23:18 6,7 C 6,1 C 5,0 C 94 % 15 lf 996,1 hPa 0,0 l/m 0 min 0 min 0 W/m 11,3 km/h (2 Bft) 97,83 %
15.03.2018 23:20 6,7 C 6,1 C 5,0 C 94 % 15 lf 996,0 hPa 0,0 l/m 0 min 0 min 0 W/m 11,3 km/h (2 Bft) 97,87 %
15.03.2018 23:22 6,7 C 6,1 C 5,0 C 94 % 15 lf 996,1 hPa 0,0 l/m 0 min 0 min 0 W/m 11,3 km/h (2 Bft) 97,87 %
15.03.2018 23:24 6,7 C 6,1 C 5,0 C 95 % 15 lf 996,0 hPa 0,0 l/m 0 min 0 min 0 W/m 13,5 km/h (3 Bft) 97,87 %
15.03.2018 23:26 6,7 C 6,1 C 5,0 C 95 % 15 lf 996,0 hPa 0,0 l/m 0 min 0 min 0 W/m 11,3 km/h (2 Bft) 97,87 %
15.03.2018 23:28 6,7 C 6,1 C 5,0 C 95 % 15 lf 996,0 hPa 0,2 l/m 0 min 0 min 0 W/m 11,3 km/h (2 Bft) 97,87 %
15.03.2018 23:30 6,7 C 6,1 C 5,0 C 95 % 15 lf 996,0 hPa 0,0 l/m 0 min 0 min 0 W/m 11,3 km/h (2 Bft) 95,65 %
15.03.2018 23:32 6,7 C 6,1 C 5,0 C 95 % 15 lf 996,0 hPa 0,0 l/m 0 min 0 min 0 W/m 15,8 km/h (3 Bft) 97,87 %
15.03.2018 23:34 6,7 C 6,1 C 5,0 C 95 % 15 lf 996,0 hPa 0,0 l/m 0 min 0 min 0 W/m 6,8 km/h (2 Bft) 97,87 %
15.03.2018 23:36 6,7 C 6,1 C 5,0 C 95 % 15 lf 996,0 hPa 0,0 l/m 0 min 0 min 0 W/m 11,3 km/h (2 Bft) 97,87 %
15.03.2018 23:38 6,7 C 6,1 C 5,0 C 94 % 15 lf 996,0 hPa 0,0 l/m 0 min 0 min 0 W/m 15,8 km/h (3 Bft) 95,74 %
15.03.2018 23:40 6,7 C 6,1 C 5,0 C 94 % 15 lf 996,0 hPa 0,0 l/m 0 min 0 min 0 W/m 13,5 km/h (3 Bft) 97,87 %
15.03.2018 23:42 6,7 C 6,1 C 5,0 C 95 % 15 lf 996,0 hPa 0,0 l/m 0 min 0 min 0 W/m 15,8 km/h (3 Bft) 100,00 %
15.03.2018 23:44 6,7 C 6,1 C 5,0 C 95 % 15 lf 996,0 hPa 0,0 l/m 0 min 0 min 0 W/m 18,0 km/h (3 Bft) 100,00 %
15.03.2018 23:46 6,7 C 6,1 C 5,0 C 95 % 15 lf 995,9 hPa 0,0 l/m 0 min 0 min 0 W/m 20,3 km/h (4 Bft) 97,87 %
15.03.2018 23:48 6,7 C 6,1 C 5,0 C 95 % 15 lf 996,0 hPa 0,0 l/m 0 min 0 min 0 W/m 20,3 km/h (4 Bft) 100,00 %
15.03.2018 23:50 6,7 C 6,1 C 5,0 C 95 % 15 lf 996,0 hPa 0,0 l/m 0 min 0 min 0 W/m 20,3 km/h (4 Bft) 100,00 %
15.03.2018 23:52 6,7 C 6,1 C 5,0 C 95 % 15 lf 995,9 hPa 0,0 l/m 0 min 0 min 0 W/m 20,3 km/h (4 Bft) 100,00 %
15.03.2018 23:54 6,7 C 6,1 C 5,0 C 95 % 15 lf 996,0 hPa 0,0 l/m 0 min 0 min 0 W/m 18,0 km/h (3 Bft) 100,00 %
15.03.2018 23:56 6,6 C 6,1 C 5,0 C 95 % 15 lf 996,0 hPa 0,0 l/m 0 min 0 min 0 W/m 20,3 km/h (4 Bft) 97,87 %
15.03.2018 23:58 6,6 C 6,1 C 5,0 C 95 % 15 lf 996,0 hPa 0,2 l/m 0 min 0 min 0 W/m 20,3 km/h (4 Bft) 97,87 %
_ Min-Zeit 06:14 00:58 01:14 17:06 00:00 15:32 - - - - 16:38 07:36
Minimum _ 4,4 C 4,4 C 2,2 C 62 % 0 lf 994,1 hPa - - - - 2,3 km/h (1 Bft) 87,23 %
_ Max-Zeit 15:38 10:58 11:00 23:24 20:22 00:00 19:40 09:08 18:52 11:00 09:00 01:24
Maximum _ 11,8 C 14,4 C 12,8 C 95 % 15 lf 1003,0 hPa 0,2 l/m 4 min 2 min 482 W/m 65,3 km/h
O-SO (8 Bft)
100,00 %
Durchschnitt _ 7,9 C 8,0 C 6,7 C 77 % 2 lf 996,9 hPa #3,4 l/m #4:10 h #3:46 h 176 W/m 25,9 km/h (4 Bft) 96,50 %
© 2018 W. Hausmann